Time,TemperatureF,DewpointF,PressureIn,WindDirection,WindDirectionDegrees,WindSpeedMPH,WindSpeedGustMPH,Humidity,HourlyPrecipIn,Conditions,Clouds,dailyrainin,SoftwareType,DateUTC
2013-09-01 00:01:00,75.7,71.9,29.91,SE,126,0.1,1.1,88,0.00,RA,,0.00,WeatherDisplay:10.37,2013-09-01 04:01:00,
2013-09-01 00:02:00,75.7,71.9,29.91,SE,126,0.0,1.1,88,0.00,RA,,0.00,WeatherDisplay:10.37,2013-09-01 04:02:00,
2013-09-01 00:03:00,75.9,72.4,29.91,SSE,158,0.9,2.0,89,0.00,RA,,0.00,WeatherDisplay:10.37,2013-09-01 04:03:00,
2013-09-01 00:06:00,75.8,72.3,29.91,South,181,1.1,3.5,89,0.00,RA,,0.00,WeatherDisplay:10.37,2013-09-01 04:06:00,
2013-09-01 00:07:00,75.6,71.8,29.91,South,181,0.0,1.1,88,0.00,RA,,0.00,WeatherDisplay:10.37,2013-09-01 04:07:00,
2013-09-01 00:08:00,75.6,71.8,29.91,South,181,0.0,1.1,88,0.00,RA,,0.00,WeatherDisplay:10.37,2013-09-01 04:08:00,
2013-09-01 00:09:00,75.6,71.8,29.91,South,181,0.0,0.0,88,0.00,RA,,0.00,WeatherDisplay:10.37,2013-09-01 04:09:00,
2013-09-01 00:11:00,75.5,71.7,29.92,South,181,0.0,0.0,88,0.00,OVC,,0.00,WeatherDisplay:10.37,2013-09-01 04:11:00,
2013-09-01 00:12:00,75.5,71.7,29.91,South,181,0.0,0.0,88,0.00,OVC,,0.00,WeatherDisplay:10.37,2013-09-01 04:12:00,
2013-09-01 00:13:00,75.4,71.6,29.92,South,181,0.0,0.0,88,0.00,OVC,,0.00,WeatherDisplay:10.37,2013-09-01 04:13:00,
2013-09-01 00:16:00,75.3,71.5,29.92,South,181,0.0,0.0,88,0.00,OVC,,0.00,WeatherDisplay:10.37,2013-09-01 04:16:00,
2013-09-01 00:17:00,75.2,71.4,29.92,South,181,0.0,0.0,88,0.00,OVC,,0.00,WeatherDisplay:10.37,2013-09-01 04:17:00,
2013-09-01 00:18:00,75.1,71.3,29.92,South,181,0.0,0.0,88,0.00,OVC,,0.00,WeatherDisplay:10.37,2013-09-01 04:18:00,
2013-09-01 00:19:00,75.1,71.6,29.92,South,181,0.0,0.0,89,0.00,OVC,,0.00,WeatherDisplay:10.37,2013-09-01 04:19:00,
2013-09-01 00:21:00,75.1,72.0,29.92,South,181,0.0,0.0,90,0.00,OVC,,0.00,WeatherDisplay:10.37,2013-09-01 04:21:00,
2013-09-01 00:22:00,75.2,71.7,29.92,South,181,0.0,0.0,89,0.00,OVC,,0.00,WeatherDisplay:10.37,2013-09-01 04:22:00,
2013-09-01 00:23:00,75.1,71.6,29.92,South,181,0.0,0.0,89,0.00,OVC,,0.00,WeatherDisplay:10.37,2013-09-01 04:23:00,
2013-09-01 00:24:00,75.2,72.1,29.92,South,181,0.0,0.0,90,0.00,OVC,,0.00,WeatherDisplay:10.37,2013-09-01 04:24:00,
2013-09-01 00:26:00,75.2,72.1,29.92,South,181,0.0,0.0,90,0.00,OVC,,0.00,WeatherDisplay:10.37,2013-09-01 04:26:00,
2013-09-01 00:27:00,75.3,72.2,29.92,South,181,0.0,0.0,90,0.00,OVC,,0.00,WeatherDisplay:10.37,2013-09-01 04:27:00,
2013-09-01 00:28:00,75.2,72.1,29.92,South,181,0.0,0.0,90,0.00,OVC,,0.00,WeatherDisplay:10.37,2013-09-01 04:28:00,
2013-09-01 00:29:00,75.2,71.7,29.92,South,181,0.0,0.0,89,0.00,OVC,,0.00,WeatherDisplay:10.37,2013-09-01 04:29:00,
2013-09-01 00:31:00,75.0,71.2,29.92,South,181,0.0,0.0,88,0.00,OVC,,0.00,WeatherDisplay:10.37,2013-09-01 04:31:00,
2013-09-01 00:33:00,74.9,71.4,29.92,South,181,0.0,0.0,89,0.00,OVC,,0.00,WeatherDisplay:10.37,2013-09-01 04:33:00,
2013-09-01 00:34:00,74.9,71.8,29.92,South,181,0.0,0.0,90,0.00,OVC,,0.00,WeatherDisplay:10.37,2013-09-01 04:34:00,
2013-09-01 00:36:00,74.9,71.4,29.92,South,181,0.0,0.0,89,0.00,OVC,,0.00,WeatherDisplay:10.37,2013-09-01 04:36:00,
2013-09-01 00:38:00,74.9,71.4,29.92,South,181,0.0,0.0,89,0.00,OVC,,0.00,WeatherDisplay:10.37,2013-09-01 04:38:00,
2013-09-01 00:40:00,74.9,71.4,29.92,South,181,0.0,0.0,89,0.00,OVC,,0.00,WeatherDisplay:10.37,2013-09-01 04:40:00,
2013-09-01 00:41:00,74.9,71.4,29.91,South,181,0.0,0.0,89,0.00,OVC,,0.00,WeatherDisplay:10.37,2013-09-01 04:41:00,
2013-09-01 00:43:00,74.8,71.3,29.91,East,100,0.0,3.5,89,0.00,OVC,,0.00,WeatherDisplay:10.37,2013-09-01 04:43:00,
2013-09-01 00:45:00,74.8,71.3,29.91,East,97,0.0,2.3,89,0.00,OVC,,0.00,WeatherDisplay:10.37,2013-09-01 04:45:00,
2013-09-01 00:46:00,74.8,71.3,29.91,East,97,0.0,0.0,89,0.00,OVC,,0.00,WeatherDisplay:10.37,2013-09-01 04:46:00,
2013-09-01 00:47:00,74.8,71.0,29.91,East,97,0.0,0.0,88,0.00,OVC,,0.00,WeatherDisplay:10.37,2013-09-01 04:47:00,
2013-09-01 00:48:00,74.8,71.0,29.91,East,98,0.0,1.1,88,0.00,OVC,,0.00,WeatherDisplay:10.37,2013-09-01 04:48:00,
2013-09-01 00:49:00,74.8,71.0,29.91,East,97,0.1,1.1,88,0.00,OVC,,0.00,WeatherDisplay:10.37,2013-09-01 04:49:00,
2013-09-01 00:51:00,74.8,71.0,29.91,East,97,0.0,0.0,88,0.00,OVC,,0.00,WeatherDisplay:10.37,2013-09-01 04:51:00,
2013-09-01 00:53:00,74.9,71.4,29.91,East,100,0.0,0.0,89,0.00,OVC,,0.00,WeatherDisplay:10.37,2013-09-01 04:53:00,
2013-09-01 00:55:00,74.9,71.4,29.91,SE,139,0.0,0.0,89,0.00,OVC,,0.00,WeatherDisplay:10.37,2013-09-01 04:55:00,
2013-09-01 00:56:00,74.9,71.4,29.90,SE,139,0.0,0.0,89,0.00,OVC,,0.00,WeatherDisplay:10.37,2013-09-01 04:56:00,
2013-09-01 00:58:00,74.8,71.3,29.90,SE,139,0.0,1.1,89,0.00,OVC,,0.00,WeatherDisplay:10.37,2013-09-01 04:58:00,
2013-09-01 00:59:00,74.8,71.3,29.90,SE,139,0.0,0.0,89,0.00,OVC,,0.00,WeatherDisplay:10.37,2013-09-01 04:59:00,
2013-09-01 01:00:00,74.8,71.3,29.90,SE,139,0.0,0.0,89,0.00,OVC,,0.00,WeatherDisplay:10.37,2013-09-01 05:00:00,
2013-09-01 01:01:00,74.8,71.3,29.90,SE,139,0.0,0.0,89,0.00,BKN,,0.00,WeatherDisplay:10.37,2013-09-01 05:01:00,
2013-09-01 01:03:00,74.7,71.2,29.90,SE,139,0.0,0.0,89,0.00,BKN,,0.00,WeatherDisplay:10.37,2013-09-01 05:03:00,
2013-09-01 01:04:00,74.7,71.2,29.90,SE,139,0.0,0.0,89,0.00,BKN,,0.00,WeatherDisplay:10.37,2013-09-01 05:04:00,
2013-09-01 01:05:00,74.7,71.6,29.91,SE,139,0.0,0.0,90,0.00,BKN,,0.00,WeatherDisplay:10.37,2013-09-01 05:05:00,
2013-09-01 01:06:00,74.7,71.6,29.91,SE,139,0.0,0.0,90,0.00,BKN,,0.00,WeatherDisplay:10.37,2013-09-01 05:06:00,
2013-09-01 01:08:00,74.7,71.6,29.91,SE,139,0.1,1.1,90,0.00,BKN,,0.00,WeatherDisplay:10.37,2013-09-01 05:08:00,
2013-09-01 01:09:00,74.7,71.2,29.91,SE,139,0.1,1.1,89,0.00,BKN,,0.00,WeatherDisplay:10.37,2013-09-01 05:09:00,
2013-09-01 01:10:00,74.7,71.2,29.91,SE,139,0.0,0.0,89,0.00,BKN,,0.00,WeatherDisplay:10.37,2013-09-01 05:10:00,
2013-09-01 01:11:00,74.6,71.1,29.91,SE,139,0.0,0.0,89,0.00,BKN,,0.00,WeatherDisplay:10.37,2013-09-01 05:11:00,
2013-09-01 01:12:00,74.6,71.1,29.91,SE,140,0.0,0.0,89,0.00,BKN,,0.00,WeatherDisplay:10.37,2013-09-01 05:12:00,
2013-09-01 01:14:00,74.4,70.9,29.91,SE,139,0.0,0.0,89,0.00,BKN,,0.00,WeatherDisplay:10.37,2013-09-01 05:14:00,
2013-09-01 01:15:00,74.4,70.9,29.91,SE,139,0.0,0.0,89,0.00,BKN,,0.00,WeatherDisplay:10.37,2013-09-01 05:15:00,
2013-09-01 01:16:00,74.3,71.2,29.92,SE,139,0.0,0.0,90,0.00,BKN,,0.00,WeatherDisplay:10.37,2013-09-01 05:16:00,
2013-09-01 01:17:00,74.3,71.2,29.91,SE,139,0.0,0.0,90,0.00,BKN,,0.00,WeatherDisplay:10.37,2013-09-01 05:17:00,
2013-09-01 01:19:00,74.3,71.2,29.90,SE,139,0.0,0.0,90,0.00,BKN,,0.00,WeatherDisplay:10.37,2013-09-01 05:19:00,
2013-09-01 01:20:00,74.3,71.2,29.91,SE,139,0.0,0.0,90,0.00,BKN,,0.00,WeatherDisplay:10.37,2013-09-01 05:20:00,
2013-09-01 01:21:00,74.3,71.2,29.90,SE,139,0.1,1.1,90,0.00,BKN,,0.00,WeatherDisplay:10.37,2013-09-01 05:21:00,
2013-09-01 01:22:00,74.3,71.2,29.91,ESE,104,0.0,0.0,90,0.00,BKN,,0.00,WeatherDisplay:10.37,2013-09-01 05:22:00,
2013-09-01 01:24:00,74.1,71.0,29.91,North,10,0.0,1.1,90,0.00,BKN,,0.00,WeatherDisplay:10.37,2013-09-01 05:24:00,
2013-09-01 01:25:00,74.1,71.0,29.91,North,10,0.0,0.0,90,0.00,BKN,,0.00,WeatherDisplay:10.37,2013-09-01 05:25:00,
2013-09-01 01:26:00,74.1,71.0,29.91,North,10,0.0,0.0,90,0.00,BKN,,0.00,WeatherDisplay:10.37,2013-09-01 05:26:00,
2013-09-01 01:27:00,74.1,71.0,29.91,North,10,0.0,0.0,90,0.00,BKN,,0.00,WeatherDisplay:10.37,2013-09-01 05:27:00,
2013-09-01 01:28:00,74.1,71.3,29.91,North,10,0.0,0.0,91,0.00,BKN,,0.00,WeatherDisplay:10.37,2013-09-01 05:28:00,
2013-09-01 01:29:00,74.0,70.9,29.91,North,10,0.3,3.0,90,0.00,BKN,,0.00,WeatherDisplay:10.37,2013-09-01 05:29:00,
2013-09-01 01:30:00,74.0,71.2,29.91,North,356,3.4,4.6,91,0.00,BKN,,0.00,WeatherDisplay:10.37,2013-09-01 05:30:00,
2013-09-01 01:32:00,73.9,71.1,29.91,NNW,346,1.2,3.5,91,0.00,BKN,,0.00,WeatherDisplay:10.37,2013-09-01 05:32:00,
2013-09-01 01:33:00,73.8,71.0,29.91,NNW,346,0.0,0.0,91,0.00,BKN,,0.00,WeatherDisplay:10.37,2013-09-01 05:33:00,
2013-09-01 01:34:00,73.7,70.9,29.91,NNW,346,0.0,1.0,91,0.00,BKN,,0.00,WeatherDisplay:10.37,2013-09-01 05:34:00,
2013-09-01 01:36:00,73.6,70.8,29.91,North,351,4.2,4.6,91,0.00,BKN,,0.00,WeatherDisplay:10.37,2013-09-01 05:36:00,
2013-09-01 01:37:00,73.5,70.7,29.91,NNW,333,3.7,4.6,91,0.00,BKN,,0.00,WeatherDisplay:10.37,2013-09-01 05:37:00,
2013-09-01 01:38:00,73.4,70.6,29.91,NNW,341,4.3,5.8,91,0.00,BKN,,0.00,WeatherDisplay:10.37,2013-09-01 05:38:00,
2013-09-01 01:39:00,73.3,70.8,29.92,North,352,5.5,5.8,92,0.00,BKN,,0.00,WeatherDisplay:10.37,2013-09-01 05:39:00,
2013-09-01 01:41:00,73.2,70.7,29.92,NNW,341,5.0,6.0,92,0.00,BKN,,0.00,WeatherDisplay:10.37,2013-09-01 05:41:00,
2013-09-01 01:42:00,73.2,70.7,29.92,North,355,1.5,6.9,92,0.00,BKN,,0.00,WeatherDisplay:10.37,2013-09-01 05:42:00,
2013-09-01 01:43:00,73.2,70.7,29.92,North,5,1.4,7.0,92,0.00,BKN,,0.00,WeatherDisplay:10.37,2013-09-01 05:43:00,
2013-09-01 01:44:00,73.2,70.7,29.92,NNW,340,1.3,8.1,92,0.00,BKN,,0.00,WeatherDisplay:10.37,2013-09-01 05:44:00,
2013-09-01 01:46:00,73.2,70.7,29.92,North,355,0.0,2.3,92,0.00,BKN,,0.00,WeatherDisplay:10.37,2013-09-01 05:46:00,
2013-09-01 01:47:00,73.2,70.7,29.91,North,355,1.3,2.3,92,0.00,BKN,,0.00,WeatherDisplay:10.37,2013-09-01 05:47:00,
2013-09-01 01:48:00,73.2,70.7,29.91,North,2,2.1,4.0,92,0.00,BKN,,0.00,WeatherDisplay:10.37,2013-09-01 05:48:00,
2013-09-01 01:49:00,73.2,70.7,29.92,NNW,348,4.5,6.0,92,0.00,BKN,,0.00,WeatherDisplay:10.37,2013-09-01 05:49:00,
2013-09-01 01:50:00,73.1,70.6,29.91,NNW,340,5.5,8.1,92,0.00,BKN,,0.00,WeatherDisplay:10.37,2013-09-01 05:50:00,
2013-09-01 01:51:00,73.0,70.5,29.92,North,350,5.3,6.9,92,0.00,BKN,,0.00,WeatherDisplay:10.37,2013-09-01 05:51:00,
2013-09-01 01:52:00,72.9,70.8,29.91,NNW,338,5.2,6.9,93,0.00,BKN,,0.00,WeatherDisplay:10.37,2013-09-01 05:52:00,
2013-09-01 01:53:00,72.9,70.8,29.91,NNW,347,5.4,9.2,93,0.00,BKN,,0.00,WeatherDisplay:10.37,2013-09-01 05:53:00,
2013-09-01 01:54:00,72.8,70.7,29.91,North,353,5.2,8.1,93,0.00,BKN,,0.00,WeatherDisplay:10.37,2013-09-01 05:54:00,
2013-09-01 01:55:00,72.8,70.7,29.91,North,353,5.2,6.9,93,0.00,BKN,,0.00,WeatherDisplay:10.37,2013-09-01 05:55:00,
2013-09-01 01:56:00,72.7,70.6,29.91,NNW,335,5.0,8.1,93,0.00,BKN,,0.00,WeatherDisplay:10.37,2013-09-01 05:56:00,
2013-09-01 01:57:00,72.7,70.6,29.91,NNW,341,4.4,5.8,93,0.00,BKN,,0.00,WeatherDisplay:10.37,2013-09-01 05:57:00,
2013-09-01 01:59:00,72.7,70.6,29.91,NNW,329,2.2,4.6,93,0.00,BKN,,0.00,WeatherDisplay:10.37,2013-09-01 05:59:00,
2013-09-01 02:00:00,72.7,70.6,29.91,NNW,338,4.2,8.1,93,0.00,BKN,,0.00,WeatherDisplay:10.37,2013-09-01 06:00:00,
2013-09-01 02:01:00,72.7,70.6,29.91,NNW,343,2.8,6.0,93,0.00,BKN,,0.00,WeatherDisplay:10.37,2013-09-01 06:01:00,
2013-09-01 02:02:00,72.6,70.5,29.91,NNW,334,3.7,5.8,93,0.00,BKN,,0.00,WeatherDisplay:10.37,2013-09-01 06:02:00,
2013-09-01 02:05:00,72.5,70.4,29.91,North,355,5.5,6.9,93,0.00,BKN,,0.00,WeatherDisplay:10.37,2013-09-01 06:05:00,
2013-09-01 02:06:00,72.5,70.4,29.91,North,352,3.7,6.0,93,0.00,BKN,,0.00,WeatherDisplay:10.37,2013-09-01 06:06:00,
2013-09-01 02:07:00,72.5,70.4,29.91,North,356,3.4,8.1,93,0.00,BKN,,0.00,WeatherDisplay:10.37,2013-09-01 06:07:00,
2013-09-01 02:10:00,72.5,70.4,29.91,North,4,4.6,8.1,93,0.00,BKN,,0.00,WeatherDisplay:10.37,2013-09-01 06:10:00,
2013-09-01 02:11:00,72.5,70.4,29.91,North,357,3.3,6.9,93,0.00,BKN,,0.00,WeatherDisplay:10.37,2013-09-01 06:11:00,
2013-09-01 02:12:00,72.5,70.4,29.91,NNE,16,0.1,3.5,93,0.00,BKN,,0.00,WeatherDisplay:10.37,2013-09-01 06:12:00,
2013-09-01 02:15:00,72.6,70.5,29.91,North,355,0.9,2.3,93,0.00,BKN,,0.00,WeatherDisplay:10.37,2013-09-01 06:15:00,
2013-09-01 02:17:00,72.7,70.6,29.91,North,355,0.0,0.0,93,0.00,BKN,,0.00,WeatherDisplay:10.37,2013-09-01 06:17:00,
2013-09-01 02:18:00,72.7,70.6,29.91,North,355,0.0,0.0,93,0.00,BKN,,0.00,WeatherDisplay:10.37,2013-09-01 06:18:00,
2013-09-01 02:20:00,72.9,70.8,29.91,North,355,0.0,0.0,93,0.00,BKN,,0.00,WeatherDisplay:10.37,2013-09-01 06:20:00,
2013-09-01 02:22:00,73.0,70.9,29.90,North,355,0.0,0.0,93,0.00,BKN,,0.00,WeatherDisplay:10.37,2013-09-01 06:22:00,
2013-09-01 02:23:00,73.1,71.0,29.91,North,355,0.0,0.0,93,0.00,BKN,,0.00,WeatherDisplay:10.37,2013-09-01 06:23:00,
2013-09-01 02:25:00,73.1,71.0,29.91,North,355,0.0,0.0,93,0.00,BKN,,0.00,WeatherDisplay:10.37,2013-09-01 06:25:00,
2013-09-01 02:27:00,73.1,70.6,29.91,North,355,0.0,0.0,92,0.00,BKN,,0.00,WeatherDisplay:10.37,2013-09-01 06:27:00,
2013-09-01 02:28:00,73.1,70.6,29.91,North,355,0.0,0.0,92,0.00,BKN,,0.00,WeatherDisplay:10.37,2013-09-01 06:28:00,
2013-09-01 02:29:00,73.1,70.6,29.91,North,355,0.0,0.0,92,0.00,BKN,,0.00,WeatherDisplay:10.37,2013-09-01 06:29:00,
2013-09-01 02:31:00,73.1,70.6,29.90,North,355,0.0,0.0,92,0.00,BKN,,0.00,WeatherDisplay:10.37,2013-09-01 06:31:00,
2013-09-01 02:32:00,73.2,70.7,29.90,North,355,0.0,0.0,92,0.00,BKN,,0.00,WeatherDisplay:10.37,2013-09-01 06:32:00,
2013-09-01 02:33:00,73.2,70.7,29.90,North,355,0.0,0.0,92,0.00,BKN,,0.00,WeatherDisplay:10.37,2013-09-01 06:33:00,
2013-09-01 02:34:00,73.2,70.7,29.90,North,355,0.0,0.0,92,0.00,BKN,,0.00,WeatherDisplay:10.37,2013-09-01 06:34:00,
2013-09-01 02:36:00,73.2,70.7,29.90,North,355,0.0,0.0,92,0.00,BKN,,0.00,WeatherDisplay:10.37,2013-09-01 06:36:00,
2013-09-01 02:38:00,73.2,70.7,29.90,North,355,0.1,1.1,92,0.00,BKN,,0.00,WeatherDisplay:10.37,2013-09-01 06:38:00,
2013-09-01 02:39:00,73.2,70.7,29.90,North,0,0.0,0.0,92,0.00,BKN,,0.00,WeatherDisplay:10.37,2013-09-01 06:39:00,
2013-09-01 02:41:00,73.2,70.7,29.90,North,0,0.0,0.0,92,0.00,BKN,,0.00,WeatherDisplay:10.37,2013-09-01 06:41:00,
2013-09-01 02:43:00,73.2,70.7,29.90,North,0,0.0,0.0,92,0.00,BKN,,0.00,WeatherDisplay:10.37,2013-09-01 06:43:00,
2013-09-01 02:44:00,73.2,70.7,29.90,North,0,0.0,0.0,92,0.00,BKN,,0.00,WeatherDisplay:10.37,2013-09-01 06:44:00,
2013-09-01 02:46:00,73.2,70.7,29.90,North,0,0.0,0.0,92,0.00,BKN,,0.00,WeatherDisplay:10.37,2013-09-01 06:46:00,
2013-09-01 02:48:00,73.1,70.6,29.90,North,0,0.0,0.0,92,0.00,BKN,,0.00,WeatherDisplay:10.37,2013-09-01 06:48:00,
2013-09-01 02:49:00,73.2,70.7,29.90,North,0,0.0,0.0,92,0.00,BKN,,0.00,WeatherDisplay:10.37,2013-09-01 06:49:00,
2013-09-01 02:51:00,73.2,70.7,29.90,North,0,0.1,0.0,92,0.00,BKN,,0.00,WeatherDisplay:10.37,2013-09-01 06:51:00,
2013-09-01 02:52:00,73.2,70.7,29.90,North,0,0.0,1.1,92,0.00,BKN,,0.00,WeatherDisplay:10.37,2013-09-01 06:52:00,
2013-09-01 02:53:00,73.2,70.7,29.90,North,0,0.0,0.0,92,0.00,BKN,,0.00,WeatherDisplay:10.37,2013-09-01 06:53:00,
2013-09-01 02:54:00,73.2,70.7,29.90,North,0,0.0,0.0,92,0.00,BKN,,0.00,WeatherDisplay:10.37,2013-09-01 06:54:00,
2013-09-01 02:56:00,73.2,70.7,29.90,North,0,0.0,0.0,92,0.00,BKN,,0.00,WeatherDisplay:10.37,2013-09-01 06:56:00,
2013-09-01 02:57:00,73.2,70.7,29.90,North,0,0.0,0.0,92,0.00,BKN,,0.00,WeatherDisplay:10.37,2013-09-01 06:57:00,
2013-09-01 02:58:00,73.2,70.7,29.90,North,0,0.0,0.0,92,0.00,BKN,,0.00,WeatherDisplay:10.37,2013-09-01 06:58:00,
2013-09-01 02:59:00,73.2,70.4,29.90,North,0,0.0,0.0,91,0.00,BKN,,0.00,WeatherDisplay:10.37,2013-09-01 06:59:00,
2013-09-01 03:00:00,73.2,70.7,29.90,North,0,0.0,0.0,92,0.00,BKN,,0.00,WeatherDisplay:10.37,2013-09-01 07:00:00,
2013-09-01 03:02:00,73.2,70.7,29.90,North,0,0.0,1.1,92,0.00,BKN,,0.00,WeatherDisplay:10.37,2013-09-01 07:02:00,
2013-09-01 03:03:00,73.2,70.4,29.90,North,0,0.0,0.0,91,0.00,BKN,,0.00,WeatherDisplay:10.37,2013-09-01 07:03:00,
2013-09-01 03:05:00,73.0,70.2,29.90,North,0,0.9,3.5,91,0.00,BKN,,0.00,WeatherDisplay:10.37,2013-09-01 07:05:00,
2013-09-01 03:06:00,73.0,70.2,29.90,North,0,0.0,3.5,91,0.00,BKN,,0.00,WeatherDisplay:10.37,2013-09-01 07:06:00,
2013-09-01 03:07:00,73.0,70.2,29.90,North,0,0.0,1.1,91,0.00,BKN,,0.00,WeatherDisplay:10.37,2013-09-01 07:07:00,
2013-09-01 03:08:00,72.9,70.4,29.90,North,0,0.0,0.0,92,0.00,BKN,,0.00,WeatherDisplay:10.37,2013-09-01 07:08:00,
2013-09-01 03:10:00,72.9,70.4,29.90,North,0,0.0,0.0,92,0.00,BKN,,0.00,WeatherDisplay:10.37,2013-09-01 07:10:00,
2013-09-01 03:12:00,73.0,70.5,29.90,NNE,16,0.0,0.0,92,0.00,BKN,,0.00,WeatherDisplay:10.37,2013-09-01 07:12:00,
2013-09-01 03:13:00,73.0,70.5,29.90,NNE,16,0.0,0.0,92,0.00,BKN,,0.00,WeatherDisplay:10.37,2013-09-01 07:13:00,
2013-09-01 03:15:00,73.0,70.5,29.90,NNE,15,0.0,0.0,92,0.00,BKN,,0.00,WeatherDisplay:10.37,2013-09-01 07:15:00,
2013-09-01 03:16:00,73.0,70.5,29.90,NNE,16,0.0,0.0,92,0.00,BKN,,0.00,WeatherDisplay:10.37,2013-09-01 07:16:00,
2013-09-01 03:17:00,73.0,70.5,29.90,NNE,15,0.0,0.0,92,0.00,BKN,,0.00,WeatherDisplay:10.37,2013-09-01 07:17:00,
2013-09-01 03:18:00,73.0,70.5,29.90,NNE,16,0.0,0.0,92,0.00,BKN,,0.00,WeatherDisplay:10.37,2013-09-01 07:18:00,
2013-09-01 03:20:00,73.0,70.5,29.91,NNE,16,0.0,0.0,92,0.00,BKN,,0.00,WeatherDisplay:10.37,2013-09-01 07:20:00,
2013-09-01 03:22:00,73.0,70.2,29.91,NNE,16,0.0,1.1,91,0.00,BKN,,0.00,WeatherDisplay:10.37,2013-09-01 07:22:00,
2013-09-01 03:23:00,72.9,70.4,29.91,NNE,15,0.0,0.0,92,0.00,BKN,,0.00,WeatherDisplay:10.37,2013-09-01 07:23:00,
2013-09-01 03:25:00,73.0,70.5,29.91,NNE,15,0.0,0.0,92,0.00,BKN,,0.00,WeatherDisplay:10.37,2013-09-01 07:25:00,
2013-09-01 03:27:00,73.0,70.2,29.91,NNE,20,0.0,1.1,91,0.00,BKN,,0.00,WeatherDisplay:10.37,2013-09-01 07:27:00,
2013-09-01 03:28:00,73.0,70.5,29.91,NNE,26,0.0,0.0,92,0.00,BKN,,0.00,WeatherDisplay:10.37,2013-09-01 07:28:00,
2013-09-01 03:29:00,73.0,70.5,29.91,NNE,26,0.0,0.0,92,0.00,BKN,,0.00,WeatherDisplay:10.37,2013-09-01 07:29:00,
2013-09-01 03:30:00,73.0,70.2,29.90,NNE,26,0.0,0.0,91,0.00,BKN,,0.00,WeatherDisplay:10.37,2013-09-01 07:30:00,
2013-09-01 03:33:00,73.0,70.2,29.91,NNE,26,0.0,0.0,91,0.00,BKN,,0.00,WeatherDisplay:10.37,2013-09-01 07:33:00,
2013-09-01 03:34:00,73.0,70.5,29.90,NNE,26,0.0,0.0,92,0.00,BKN,,0.00,WeatherDisplay:10.37,2013-09-01 07:34:00,
2013-09-01 03:35:00,73.0,70.5,29.90,NNE,26,0.0,0.0,92,0.00,BKN,,0.00,WeatherDisplay:10.37,2013-09-01 07:35:00,
2013-09-01 03:36:00,73.0,70.5,29.90,NNE,26,0.0,0.0,92,0.00,BKN,,0.00,WeatherDisplay:10.37,2013-09-01 07:36:00,
2013-09-01 03:38:00,73.0,70.2,29.90,NNE,26,0.0,0.0,91,0.00,BKN,,0.00,WeatherDisplay:10.37,2013-09-01 07:38:00,
2013-09-01 03:39:00,73.0,70.2,29.90,NNE,26,0.0,0.0,91,0.00,BKN,,0.00,WeatherDisplay:10.37,2013-09-01 07:39:00,
2013-09-01 03:41:00,73.0,70.5,29.90,NNE,26,0.0,0.0,92,0.00,BKN,,0.00,WeatherDisplay:10.37,2013-09-01 07:41:00,
2013-09-01 03:43:00,73.0,70.5,29.91,NNE,26,0.0,0.0,92,0.00,BKN,,0.00,WeatherDisplay:10.37,2013-09-01 07:43:00,
2013-09-01 03:44:00,73.0,70.5,29.90,NNE,26,0.0,0.0,92,0.00,BKN,,0.00,WeatherDisplay:10.37,2013-09-01 07:44:00,
2013-09-01 03:45:00,73.0,70.5,29.90,NNE,26,0.0,0.0,92,0.00,BKN,,0.00,WeatherDisplay:10.37,2013-09-01 07:45:00,
2013-09-01 03:46:00,73.0,70.5,29.90,NNE,26,0.0,0.0,92,0.00,BKN,,0.00,WeatherDisplay:10.37,2013-09-01 07:46:00,
2013-09-01 03:48:00,73.0,70.5,29.90,NNE,26,0.0,0.0,92,0.00,BKN,,0.00,WeatherDisplay:10.37,2013-09-01 07:48:00,
2013-09-01 03:49:00,73.0,70.5,29.90,NNE,26,0.0,0.0,92,0.00,BKN,,0.00,WeatherDisplay:10.37,2013-09-01 07:49:00,
2013-09-01 03:50:00,73.0,70.5,29.90,NNE,26,0.0,0.0,92,0.00,BKN,,0.00,WeatherDisplay:10.37,2013-09-01 07:50:00,
2013-09-01 03:51:00,73.1,70.6,29.90,NNE,26,0.0,0.0,92,0.00,BKN,,0.00,WeatherDisplay:10.37,2013-09-01 07:51:00,
2013-09-01 03:53:00,73.0,70.9,29.90,NNE,26,0.0,0.0,93,0.00,BKN,,0.00,WeatherDisplay:10.37,2013-09-01 07:53:00,
2013-09-01 03:54:00,73.0,70.5,29.90,NNE,26,0.0,0.0,92,0.00,BKN,,0.00,WeatherDisplay:10.37,2013-09-01 07:54:00,
2013-09-01 03:55:00,73.0,70.5,29.90,NNE,26,0.0,0.0,92,0.00,BKN,,0.00,WeatherDisplay:10.37,2013-09-01 07:55:00,
2013-09-01 03:56:00,73.0,70.5,29.91,NNE,26,0.0,0.0,92,0.00,BKN,,0.00,WeatherDisplay:10.37,2013-09-01 07:56:00,
2013-09-01 03:58:00,72.9,70.4,29.91,NNE,26,0.0,0.0,92,0.00,BKN,,0.00,WeatherDisplay:10.37,2013-09-01 07:58:00,
2013-09-01 03:59:00,72.9,70.4,29.91,NNE,26,0.0,0.0,92,0.00,BKN,,0.00,WeatherDisplay:10.37,2013-09-01 07:59:00,
2013-09-01 04:01:00,72.9,70.8,29.91,NNE,26,0.0,0.0,93,0.00,OVC,,0.00,WeatherDisplay:10.37,2013-09-01 08:01:00,
2013-09-01 04:02:00,72.9,70.4,29.91,NNE,26,0.0,0.0,92,0.00,OVC,,0.00,WeatherDisplay:10.37,2013-09-01 08:02:00,
2013-09-01 04:03:00,72.9,70.4,29.91,NNE,26,0.0,0.0,92,0.00,OVC,,0.00,WeatherDisplay:10.37,2013-09-01 08:03:00,
2013-09-01 04:04:00,72.9,70.8,29.91,NNE,26,0.0,0.0,93,0.00,OVC,,0.00,WeatherDisplay:10.37,2013-09-01 08:04:00,
2013-09-01 04:06:00,72.9,70.8,29.91,NNE,26,0.0,0.0,93,0.00,OVC,,0.00,WeatherDisplay:10.37,2013-09-01 08:06:00,
2013-09-01 04:07:00,72.9,70.4,29.90,NNE,26,0.0,0.0,92,0.00,OVC,,0.00,WeatherDisplay:10.37,2013-09-01 08:07:00,
2013-09-01 04:08:00,72.9,70.4,29.90,NNE,26,0.0,0.0,92,0.00,OVC,,0.00,WeatherDisplay:10.37,2013-09-01 08:08:00,
2013-09-01 04:09:00,72.9,70.4,29.90,NNE,26,0.0,0.0,92,0.00,OVC,,0.00,WeatherDisplay:10.37,2013-09-01 08:09:00,
2013-09-01 04:11:00,72.9,70.4,29.90,NNE,26,0.0,0.0,92,0.00,OVC,,0.00,WeatherDisplay:10.37,2013-09-01 08:11:00,
2013-09-01 04:12:00,72.9,70.4,29.90,NNE,26,0.0,0.0,92,0.00,OVC,,0.00,WeatherDisplay:10.37,2013-09-01 08:12:00,
2013-09-01 04:13:00,72.9,70.4,29.90,NNE,26,0.0,0.0,92,0.00,OVC,,0.00,WeatherDisplay:10.37,2013-09-01 08:13:00,
2013-09-01 04:14:00,72.8,70.3,29.90,NNE,26,0.0,0.0,92,0.00,OVC,,0.00,WeatherDisplay:10.37,2013-09-01 08:14:00,
2013-09-01 04:15:00,72.8,70.3,29.90,NNE,26,0.0,0.0,92,0.00,OVC,,0.00,WeatherDisplay:10.37,2013-09-01 08:15:00,
2013-09-01 04:17:00,72.7,70.2,29.90,NNE,26,0.0,0.0,92,0.00,OVC,,0.00,WeatherDisplay:10.37,2013-09-01 08:17:00,
2013-09-01 04:19:00,72.7,70.2,29.90,NNE,26,0.0,0.0,92,0.00,OVC,,0.00,WeatherDisplay:10.37,2013-09-01 08:19:00,
2013-09-01 04:22:00,72.7,70.2,29.90,NNE,26,0.0,0.0,92,0.00,OVC,,0.00,WeatherDisplay:10.37,2013-09-01 08:22:00,
2013-09-01 04:24:00,72.7,70.6,29.90,NNE,26,0.0,0.0,93,0.00,OVC,,0.00,WeatherDisplay:10.37,2013-09-01 08:24:00,
2013-09-01 04:25:00,72.7,70.6,29.90,NNE,26,0.0,0.0,93,0.00,OVC,,0.00,WeatherDisplay:10.37,2013-09-01 08:25:00,
2013-09-01 04:27:00,72.7,70.6,29.90,NNE,26,0.0,0.0,93,0.00,OVC,,0.00,WeatherDisplay:10.37,2013-09-01 08:27:00,
2013-09-01 04:28:00,72.7,70.6,29.90,NNE,26,0.0,0.0,93,0.00,OVC,,0.00,WeatherDisplay:10.37,2013-09-01 08:28:00,
2013-09-01 04:29:00,72.7,70.6,29.90,NNE,26,0.0,0.0,93,0.00,OVC,,0.00,WeatherDisplay:10.37,2013-09-01 08:29:00,
2013-09-01 04:30:00,72.7,70.6,29.90,NNE,26,0.0,0.0,93,0.00,OVC,,0.00,WeatherDisplay:10.37,2013-09-01 08:30:00,
2013-09-01 04:33:00,72.6,70.5,29.90,NNE,26,0.0,0.0,93,0.00,OVC,,0.00,WeatherDisplay:10.37,2013-09-01 08:33:00,
2013-09-01 04:34:00,72.6,70.5,29.90,NNE,26,0.0,0.0,93,0.00,OVC,,0.00,WeatherDisplay:10.37,2013-09-01 08:34:00,
2013-09-01 04:35:00,72.6,70.5,29.90,NNE,26,0.0,0.0,93,0.00,OVC,,0.00,WeatherDisplay:10.37,2013-09-01 08:35:00,
2013-09-01 04:38:00,72.5,70.4,29.90,NNE,26,0.0,0.0,93,0.00,OVC,,0.00,WeatherDisplay:10.37,2013-09-01 08:38:00,
2013-09-01 04:39:00,72.5,70.0,29.90,NNE,26,0.0,0.0,92,0.00,OVC,,0.00,WeatherDisplay:10.37,2013-09-01 08:39:00,
2013-09-01 04:40:00,72.4,69.9,29.90,NNE,26,0.0,0.0,92,0.00,OVC,,0.00,WeatherDisplay:10.37,2013-09-01 08:40:00,
2013-09-01 04:41:00,72.4,70.3,29.91,NNE,26,0.0,0.0,93,0.00,OVC,,0.00,WeatherDisplay:10.37,2013-09-01 08:41:00,
2013-09-01 04:43:00,72.4,70.3,29.90,NNE,26,0.0,0.0,93,0.00,OVC,,0.00,WeatherDisplay:10.37,2013-09-01 08:43:00,
2013-09-01 04:44:00,72.4,70.3,29.90,NNE,26,0.0,0.0,93,0.00,OVC,,0.00,WeatherDisplay:10.37,2013-09-01 08:44:00,
2013-09-01 04:45:00,72.4,70.3,29.90,NNE,26,0.0,0.0,93,0.00,OVC,,0.00,WeatherDisplay:10.37,2013-09-01 08:45:00,
2013-09-01 04:47:00,72.4,70.3,29.90,NNE,26,0.0,0.0,93,0.00,OVC,,0.00,WeatherDisplay:10.37,2013-09-01 08:47:00,
2013-09-01 04:48:00,72.4,70.6,29.90,NNE,26,0.0,0.0,94,0.00,OVC,,0.00,WeatherDisplay:10.37,2013-09-01 08:48:00,
2013-09-01 04:49:00,72.4,70.6,29.90,NNE,26,0.0,0.0,94,0.00,OVC,,0.00,WeatherDisplay:10.37,2013-09-01 08:49:00,
2013-09-01 04:50:00,72.4,70.6,29.90,NNE,26,0.0,0.0,94,0.00,OVC,,0.00,WeatherDisplay:10.37,2013-09-01 08:50:00,
2013-09-01 04:53:00,72.5,70.7,29.90,NNE,26,0.0,0.0,94,0.00,OVC,,0.00,WeatherDisplay:10.37,2013-09-01 08:53:00,
2013-09-01 04:54:00,72.5,70.7,29.90,NNE,26,0.0,0.0,94,0.00,OVC,,0.00,WeatherDisplay:10.37,2013-09-01 08:54:00,
2013-09-01 04:55:00,72.5,70.7,29.90,NNE,26,0.0,0.0,94,0.00,OVC,,0.00,WeatherDisplay:10.37,2013-09-01 08:55:00,
2013-09-01 04:59:00,72.5,70.4,29.90,NNE,26,0.0,0.0,93,0.00,OVC,,0.00,WeatherDisplay:10.37,2013-09-01 08:59:00,
2013-09-01 05:00:00,72.5,70.7,29.90,NNE,26,0.0,0.0,94,0.00,OVC,,0.00,WeatherDisplay:10.37,2013-09-01 09:00:00,
2013-09-01 05:01:00,72.5,70.7,29.90,NNE,26,0.0,0.0,94,0.00,OVC,,0.00,WeatherDisplay:10.37,2013-09-01 09:01:00,
2013-09-01 05:04:00,72.5,70.4,29.90,NNE,26,0.0,0.0,93,0.00,OVC,,0.00,WeatherDisplay:10.37,2013-09-01 09:04:00,
2013-09-01 05:05:00,72.5,70.4,29.90,NNE,26,0.0,0.0,93,0.00,OVC,,0.00,WeatherDisplay:10.37,2013-09-01 09:05:00,
2013-09-01 05:06:00,72.5,70.4,29.90,NNE,26,0.0,0.0,93,0.00,OVC,,0.00,WeatherDisplay:10.37,2013-09-01 09:06:00,
2013-09-01 05:09:00,72.5,70.7,29.90,NNE,26,0.0,0.0,94,0.00,OVC,,0.00,WeatherDisplay:10.37,2013-09-01 09:09:00,
2013-09-01 05:10:00,72.5,70.7,29.89,NNE,26,0.0,0.0,94,0.00,OVC,,0.00,WeatherDisplay:10.37,2013-09-01 09:10:00,
2013-09-01 05:11:00,72.5,70.4,29.90,NNE,26,0.0,0.0,93,0.00,OVC,,0.00,WeatherDisplay:10.37,2013-09-01 09:11:00,
2013-09-01 05:12:00,72.5,70.7,29.90,NNE,26,0.0,0.0,94,0.00,OVC,,0.00,WeatherDisplay:10.37,2013-09-01 09:12:00,
2013-09-01 05:14:00,72.4,70.3,29.90,NNE,26,0.0,0.0,93,0.00,OVC,,0.00,WeatherDisplay:10.37,2013-09-01 09:14:00,
2013-09-01 05:15:00,72.4,70.3,29.90,NNE,26,0.0,0.0,93,0.00,OVC,,0.00,WeatherDisplay:10.37,2013-09-01 09:15:00,
2013-09-01 05:16:00,72.4,70.6,29.90,NNE,26,0.0,0.0,94,0.00,OVC,,0.00,WeatherDisplay:10.37,2013-09-01 09:16:00,
2013-09-01 05:17:00,72.4,70.3,29.90,NNE,26,0.0,0.0,93,0.00,OVC,,0.00,WeatherDisplay:10.37,2013-09-01 09:17:00,
2013-09-01 05:19:00,72.4,70.3,29.89,NNE,26,0.0,0.0,93,0.00,OVC,,0.00,WeatherDisplay:10.37,2013-09-01 09:19:00,
2013-09-01 05:20:00,72.4,70.6,29.89,NNE,26,0.0,0.0,94,0.00,OVC,,0.00,WeatherDisplay:10.37,2013-09-01 09:20:00,
2013-09-01 05:21:00,72.4,70.6,29.89,NNE,26,0.0,0.0,94,0.00,OVC,,0.00,WeatherDisplay:10.37,2013-09-01 09:21:00,
2013-09-01 05:22:00,72.4,70.6,29.89,NNE,26,0.0,0.0,94,0.00,OVC,,0.00,WeatherDisplay:10.37,2013-09-01 09:22:00,
2013-09-01 05:23:00,72.4,70.3,29.89,NNE,26,0.0,0.0,93,0.00,OVC,,0.00,WeatherDisplay:10.37,2013-09-01 09:23:00,
2013-09-01 05:25:00,72.3,70.2,29.89,NNE,26,0.0,0.0,93,0.00,OVC,,0.00,WeatherDisplay:10.37,2013-09-01 09:25:00,
2013-09-01 05:26:00,72.3,70.2,29.89,NNE,26,0.0,0.0,93,0.00,OVC,,0.00,WeatherDisplay:10.37,2013-09-01 09:26:00,
2013-09-01 05:28:00,72.2,70.4,29.89,NNE,26,0.0,0.0,94,0.00,OVC,,0.00,WeatherDisplay:10.37,2013-09-01 09:28:00,
2013-09-01 05:29:00,72.1,70.0,29.89,NNE,26,0.0,0.0,93,0.00,OVC,,0.00,WeatherDisplay:10.37,2013-09-01 09:29:00,
2013-09-01 05:30:00,72.2,70.1,29.89,NNE,26,0.0,1.1,93,0.00,OVC,,0.00,WeatherDisplay:10.37,2013-09-01 09:30:00,
2013-09-01 05:31:00,72.1,70.0,29.89,NNE,26,0.0,1.1,93,0.00,OVC,,0.00,WeatherDisplay:10.37,2013-09-01 09:31:00,
2013-09-01 05:34:00,72.2,70.4,29.89,NNE,26,0.0,0.0,94,0.00,OVC,,0.00,WeatherDisplay:10.37,2013-09-01 09:34:00,
2013-09-01 05:35:00,72.1,70.3,29.89,NNE,26,0.0,0.0,94,0.00,OVC,,0.00,WeatherDisplay:10.37,2013-09-01 09:35:00,
2013-09-01 05:36:00,72.1,70.3,29.89,NNE,26,0.0,0.0,94,0.00,OVC,,0.00,WeatherDisplay:10.37,2013-09-01 09:36:00,
2013-09-01 05:40:00,72.1,70.3,29.89,NNE,26,0.0,0.0,94,0.00,OVC,,0.00,WeatherDisplay:10.37,2013-09-01 09:40:00,
2013-09-01 05:41:00,72.1,70.3,29.89,NNE,26,0.0,0.0,94,0.00,OVC,,0.00,WeatherDisplay:10.37,2013-09-01 09:41:00,
2013-09-01 05:42:00,72.1,70.3,29.89,NNE,26,0.0,0.0,94,0.00,OVC,,0.00,WeatherDisplay:10.37,2013-09-01 09:42:00,
2013-09-01 05:45:00,72.1,70.3,29.89,NNE,26,0.0,0.0,94,0.00,OVC,,0.00,WeatherDisplay:10.37,2013-09-01 09:45:00,
2013-09-01 05:46:00,72.1,70.3,29.89,NNE,26,0.0,0.0,94,0.00,OVC,,0.00,WeatherDisplay:10.37,2013-09-01 09:46:00,
2013-09-01 05:47:00,72.1,70.3,29.89,NNE,26,0.0,0.0,94,0.00,OVC,,0.00,WeatherDisplay:10.37,2013-09-01 09:47:00,
2013-09-01 05:50:00,72.2,70.4,29.89,NNE,26,0.0,0.0,94,0.00,OVC,,0.00,WeatherDisplay:10.37,2013-09-01 09:50:00,
2013-09-01 05:51:00,72.2,70.4,29.89,NNE,26,0.0,0.0,94,0.00,OVC,,0.00,WeatherDisplay:10.37,2013-09-01 09:51:00,
2013-09-01 05:52:00,72.2,70.4,29.89,NNE,26,0.0,0.0,94,0.00,OVC,,0.00,WeatherDisplay:10.37,2013-09-01 09:52:00,
2013-09-01 05:53:00,72.2,70.4,29.89,NNE,26,0.0,0.0,94,0.00,OVC,,0.00,WeatherDisplay:10.37,2013-09-01 09:53:00,
2013-09-01 05:56:00,72.2,70.4,29.89,NNE,26,0.0,0.0,94,0.00,OVC,,0.00,WeatherDisplay:10.37,2013-09-01 09:56:00,
2013-09-01 05:57:00,72.2,70.4,29.88,NNE,26,0.0,0.0,94,0.00,OVC,,0.00,WeatherDisplay:10.37,2013-09-01 09:57:00,
2013-09-01 05:58:00,72.1,70.3,29.88,NNE,26,0.0,0.0,94,0.00,OVC,,0.00,WeatherDisplay:10.37,2013-09-01 09:58:00,
2013-09-01 06:01:00,72.0,70.2,29.89,NNE,26,0.0,0.0,94,0.00,BKN,,0.00,WeatherDisplay:10.37,2013-09-01 10:01:00,
2013-09-01 06:02:00,72.1,70.3,29.88,NNE,26,0.0,0.0,94,0.00,BKN,,0.00,WeatherDisplay:10.37,2013-09-01 10:02:00,
2013-09-01 06:03:00,72.1,70.3,29.88,NNE,26,0.0,0.0,94,0.00,BKN,,0.00,WeatherDisplay:10.37,2013-09-01 10:03:00,
2013-09-01 06:04:00,72.1,70.3,29.88,NNE,26,0.0,0.0,94,0.00,BKN,,0.00,WeatherDisplay:10.37,2013-09-01 10:04:00,
2013-09-01 06:05:00,72.1,70.3,29.88,NNE,26,0.0,0.0,94,0.00,BKN,,0.00,WeatherDisplay:10.37,2013-09-01 10:05:00,
2013-09-01 06:06:00,72.1,70.3,29.88,NNE,26,0.0,0.0,94,0.00,BKN,,0.00,WeatherDisplay:10.37,2013-09-01 10:06:00,
2013-09-01 06:07:00,72.1,70.3,29.89,NNE,26,0.0,0.0,94,0.00,BKN,,0.00,WeatherDisplay:10.37,2013-09-01 10:07:00,
2013-09-01 06:08:00,72.0,70.2,29.89,NNE,26,0.0,0.0,94,0.00,BKN,,0.00,WeatherDisplay:10.37,2013-09-01 10:08:00,
2013-09-01 06:10:00,71.9,70.1,29.88,NNE,26,0.0,0.0,94,0.00,BKN,,0.00,WeatherDisplay:10.37,2013-09-01 10:10:00,
2013-09-01 06:11:00,71.9,70.1,29.88,NNE,26,0.0,0.0,94,0.00,BKN,,0.00,WeatherDisplay:10.37,2013-09-01 10:11:00,
2013-09-01 06:12:00,71.9,70.1,29.88,NNE,26,0.0,0.0,94,0.00,BKN,,0.00,WeatherDisplay:10.37,2013-09-01 10:12:00,
2013-09-01 06:13:00,71.9,70.1,29.88,NNE,26,0.0,0.0,94,0.00,BKN,,0.00,WeatherDisplay:10.37,2013-09-01 10:13:00,
2013-09-01 06:15:00,71.8,70.0,29.88,NNE,26,0.0,0.0,94,0.00,BKN,,0.00,WeatherDisplay:10.37,2013-09-01 10:15:00,
2013-09-01 06:16:00,71.8,70.0,29.88,NNE,26,0.0,0.0,94,0.00,BKN,,0.00,WeatherDisplay:10.37,2013-09-01 10:16:00,
2013-09-01 06:17:00,71.8,70.0,29.88,NNE,26,0.0,0.0,94,0.00,BKN,,0.00,WeatherDisplay:10.37,2013-09-01 10:17:00,
2013-09-01 06:19:00,71.8,70.0,29.88,NNE,26,0.0,0.0,94,0.00,BKN,,0.00,WeatherDisplay:10.37,2013-09-01 10:19:00,
2013-09-01 06:21:00,71.7,69.9,29.88,NNE,26,0.0,0.0,94,0.00,BKN,,0.00,WeatherDisplay:10.37,2013-09-01 10:21:00,
2013-09-01 06:22:00,71.7,69.9,29.88,NNE,26,0.0,0.0,94,0.00,BKN,,0.00,WeatherDisplay:10.37,2013-09-01 10:22:00,
2013-09-01 06:26:00,71.5,69.7,29.88,NNE,26,0.0,0.0,94,0.00,BKN,,0.00,WeatherDisplay:10.37,2013-09-01 10:26:00,
2013-09-01 06:27:00,71.5,69.7,29.88,NNE,26,0.0,0.0,94,0.00,BKN,,0.00,WeatherDisplay:10.37,2013-09-01 10:27:00,
2013-09-01 06:31:00,71.5,69.7,29.88,NNE,26,0.0,0.0,94,0.00,BKN,,0.00,WeatherDisplay:10.37,2013-09-01 10:31:00,
2013-09-01 06:32:00,71.5,69.7,29.88,NNE,26,0.0,0.0,94,0.00,BKN,,0.00,WeatherDisplay:10.37,2013-09-01 10:32:00,
2013-09-01 06:33:00,71.5,69.7,29.88,NNE,26,0.0,0.0,94,0.00,BKN,,0.00,WeatherDisplay:10.37,2013-09-01 10:33:00,
2013-09-01 06:37:00,71.6,70.1,29.88,NNE,26,0.0,0.0,95,0.00,BKN,,0.00,WeatherDisplay:10.37,2013-09-01 10:37:00,
2013-09-01 06:38:00,71.6,69.8,29.88,NNE,26,0.0,0.0,94,0.00,BKN,,0.00,WeatherDisplay:10.37,2013-09-01 10:38:00,
2013-09-01 06:39:00,71.6,69.8,29.88,NNE,26,0.0,0.0,94,0.00,BKN,,0.00,WeatherDisplay:10.37,2013-09-01 10:39:00,
2013-09-01 06:42:00,71.6,69.8,29.88,NNE,26,0.0,0.0,94,0.00,BKN,,0.00,WeatherDisplay:10.37,2013-09-01 10:42:00,
2013-09-01 06:43:00,71.5,69.7,29.88,NNE,26,0.0,0.0,94,0.00,BKN,,0.00,WeatherDisplay:10.37,2013-09-01 10:43:00,
2013-09-01 06:44:00,71.5,69.7,29.88,NNE,26,0.0,0.0,94,0.00,BKN,,0.00,WeatherDisplay:10.37,2013-09-01 10:44:00,
2013-09-01 06:47:00,71.5,69.7,29.88,NNE,26,0.0,0.0,94,0.00,BKN,,0.00,WeatherDisplay:10.37,2013-09-01 10:47:00,
2013-09-01 06:48:00,71.5,69.7,29.88,NNE,26,0.0,0.0,94,0.00,BKN,,0.00,WeatherDisplay:10.37,2013-09-01 10:48:00,
2013-09-01 06:49:00,71.5,69.7,29.88,NNE,26,0.0,0.0,94,0.00,BKN,,0.00,WeatherDisplay:10.37,2013-09-01 10:49:00,
2013-09-01 06:53:00,71.5,69.7,29.88,NNE,26,0.0,0.0,94,0.00,BKN,,0.00,WeatherDisplay:10.37,2013-09-01 10:53:00,
2013-09-01 06:54:00,71.5,70.0,29.88,NNE,26,0.0,0.0,95,0.00,BKN,,0.00,WeatherDisplay:10.37,2013-09-01 10:54:00,
2013-09-01 06:55:00,71.6,70.1,29.88,NNE,26,0.0,0.0,95,0.00,BKN,,0.00,WeatherDisplay:10.37,2013-09-01 10:55:00,
2013-09-01 06:58:00,71.6,70.1,29.89,NNE,26,0.0,0.0,95,0.00,BKN,,0.00,WeatherDisplay:10.37,2013-09-01 10:58:00,
2013-09-01 06:59:00,71.6,69.8,29.89,NNE,26,0.0,0.0,94,0.00,BKN,,0.00,WeatherDisplay:10.37,2013-09-01 10:59:00,
2013-09-01 07:00:00,71.6,70.1,29.88,NNE,26,0.0,0.0,95,0.00,BKN,,0.00,WeatherDisplay:10.37,2013-09-01 11:00:00,
2013-09-01 07:03:00,71.7,70.2,29.89,NNE,26,0.0,0.0,95,0.00,BKN,,0.00,WeatherDisplay:10.37,2013-09-01 11:03:00,
2013-09-01 07:04:00,71.7,70.2,29.89,NNE,26,0.0,0.0,95,0.00,BKN,,0.00,WeatherDisplay:10.37,2013-09-01 11:04:00,
2013-09-01 07:05:00,71.7,70.2,29.89,NNE,26,0.0,0.0,95,0.00,BKN,,0.00,WeatherDisplay:10.37,2013-09-01 11:05:00,
2013-09-01 07:08:00,71.7,70.2,29.89,NNE,26,0.0,0.0,95,0.00,BKN,,0.00,WeatherDisplay:10.37,2013-09-01 11:08:00,
2013-09-01 07:09:00,71.7,70.2,29.89,NNE,26,0.0,0.0,95,0.00,BKN,,0.00,WeatherDisplay:10.37,2013-09-01 11:09:00,
2013-09-01 07:10:00,71.7,70.2,29.89,NNE,26,0.0,0.0,95,0.00,BKN,,0.00,WeatherDisplay:10.37,2013-09-01 11:10:00,
2013-09-01 07:11:00,71.7,70.2,29.89,NNE,26,0.0,0.0,95,0.00,BKN,,0.00,WeatherDisplay:10.37,2013-09-01 11:11:00,
2013-09-01 07:13:00,71.8,70.3,29.89,NNE,26,0.0,0.0,95,0.00,BKN,,0.00,WeatherDisplay:10.37,2013-09-01 11:13:00,
2013-09-01 07:14:00,71.8,70.6,29.89,NNE,26,0.0,0.0,96,0.00,BKN,,0.00,WeatherDisplay:10.37,2013-09-01 11:14:00,
2013-09-01 07:15:00,71.8,70.3,29.89,NNE,26,0.0,0.0,95,0.00,BKN,,0.00,WeatherDisplay:10.37,2013-09-01 11:15:00,
2013-09-01 07:16:00,71.8,70.3,29.89,NNE,26,0.0,0.0,95,0.00,BKN,,0.00,WeatherDisplay:10.37,2013-09-01 11:16:00,
2013-09-01 07:18:00,71.8,70.3,29.89,NNE,26,0.0,0.0,95,0.00,BKN,,0.00,WeatherDisplay:10.37,2013-09-01 11:18:00,
2013-09-01 07:19:00,71.8,70.3,29.89,NNE,26,0.0,0.0,95,0.00,BKN,,0.00,WeatherDisplay:10.37,2013-09-01 11:19:00,
2013-09-01 07:20:00,71.8,70.3,29.89,NNE,26,0.0,0.0,95,0.00,BKN,,0.00,WeatherDisplay:10.37,2013-09-01 11:20:00,
2013-09-01 07:21:00,71.8,70.3,29.90,NNE,26,0.0,0.0,95,0.00,BKN,,0.00,WeatherDisplay:10.37,2013-09-01 11:21:00,
2013-09-01 07:23:00,71.8,70.3,29.90,NNE,26,0.0,0.0,95,0.00,BKN,,0.00,WeatherDisplay:10.37,2013-09-01 11:23:00,
2013-09-01 07:24:00,71.8,70.3,29.89,NNE,26,0.0,0.0,95,0.00,BKN,,0.00,WeatherDisplay:10.37,2013-09-01 11:24:00,
2013-09-01 07:25:00,71.8,70.3,29.89,NNE,26,0.0,0.0,95,0.00,BKN,,0.00,WeatherDisplay:10.37,2013-09-01 11:25:00,
2013-09-01 07:26:00,71.8,70.3,29.89,NNE,26,0.0,0.0,95,0.00,BKN,,0.00,WeatherDisplay:10.37,2013-09-01 11:26:00,
2013-09-01 07:27:00,71.9,70.4,29.89,NNE,26,0.0,0.0,95,0.00,BKN,,0.00,WeatherDisplay:10.37,2013-09-01 11:27:00,
2013-09-01 07:28:00,71.9,70.4,29.89,NNE,26,0.0,0.0,95,0.00,BKN,,0.00,WeatherDisplay:10.37,2013-09-01 11:28:00,
2013-09-01 07:29:00,71.9,70.4,29.89,NNE,26,0.0,0.0,95,0.00,BKN,,0.00,WeatherDisplay:10.37,2013-09-01 11:29:00,
2013-09-01 07:30:00,71.9,70.4,29.89,NNE,26,0.0,0.0,95,0.00,BKN,,0.00,WeatherDisplay:10.37,2013-09-01 11:30:00,
2013-09-01 07:32:00,71.9,70.4,29.89,NNE,26,0.0,0.0,95,0.00,BKN,,0.00,WeatherDisplay:10.37,2013-09-01 11:32:00,
2013-09-01 07:34:00,71.9,70.4,29.89,NNE,26,0.0,0.0,95,0.00,BKN,,0.00,WeatherDisplay:10.37,2013-09-01 11:34:00,
2013-09-01 07:35:00,72.0,70.5,29.89,NNE,26,0.0,0.0,95,0.00,BKN,,0.00,WeatherDisplay:10.37,2013-09-01 11:35:00,
2013-09-01 07:37:00,72.0,70.5,29.89,NNE,26,0.0,0.0,95,0.00,BKN,,0.00,WeatherDisplay:10.37,2013-09-01 11:37:00,
2013-09-01 07:38:00,72.0,70.8,29.89,NNE,26,0.0,0.0,96,0.00,BKN,,0.00,WeatherDisplay:10.37,2013-09-01 11:38:00,
2013-09-01 07:39:00,72.0,70.5,29.89,NNE,26,0.0,0.0,95,0.00,BKN,,0.00,WeatherDisplay:10.37,2013-09-01 11:39:00,
2013-09-01 07:40:00,72.0,70.5,29.89,NNE,26,0.0,0.0,95,0.00,BKN,,0.00,WeatherDisplay:10.37,2013-09-01 11:40:00,
2013-09-01 07:41:00,72.1,70.6,29.89,NNE,26,0.0,0.0,95,0.00,BKN,,0.00,WeatherDisplay:10.37,2013-09-01 11:41:00,
2013-09-01 07:43:00,72.1,70.6,29.89,NNE,26,0.0,0.0,95,0.00,BKN,,0.00,WeatherDisplay:10.37,2013-09-01 11:43:00,
2013-09-01 07:44:00,72.1,70.6,29.89,NNE,26,0.0,0.0,95,0.00,BKN,,0.00,WeatherDisplay:10.37,2013-09-01 11:44:00,
2013-09-01 07:45:00,72.1,70.6,29.89,NNE,26,0.0,0.0,95,0.00,BKN,,0.00,WeatherDisplay:10.37,2013-09-01 11:45:00,
2013-09-01 07:46:00,72.1,70.6,29.89,NNE,26,0.0,0.0,95,0.00,BKN,,0.00,WeatherDisplay:10.37,2013-09-01 11:46:00,
2013-09-01 07:48:00,72.1,70.6,29.90,NNE,26,0.0,0.0,95,0.00,BKN,,0.00,WeatherDisplay:10.37,2013-09-01 11:48:00,
2013-09-01 07:49:00,72.1,70.6,29.90,NNE,26,0.0,0.0,95,0.00,BKN,,0.00,WeatherDisplay:10.37,2013-09-01 11:49:00,
2013-09-01 07:50:00,72.1,70.6,29.90,NNE,26,0.0,0.0,95,0.00,BKN,,0.00,WeatherDisplay:10.37,2013-09-01 11:50:00,
2013-09-01 07:51:00,72.1,70.6,29.90,NNE,26,0.0,0.0,95,0.00,BKN,,0.00,WeatherDisplay:10.37,2013-09-01 11:51:00,
2013-09-01 07:53:00,72.1,70.6,29.90,NNE,26,0.0,0.0,95,0.00,BKN,,0.00,WeatherDisplay:10.37,2013-09-01 11:53:00,
2013-09-01 07:54:00,72.2,70.7,29.89,NNE,26,0.0,0.0,95,0.00,BKN,,0.00,WeatherDisplay:10.37,2013-09-01 11:54:00,
2013-09-01 07:55:00,72.2,70.7,29.89,NNE,26,0.0,0.0,95,0.00,BKN,,0.00,WeatherDisplay:10.37,2013-09-01 11:55:00,
2013-09-01 07:56:00,72.2,70.7,29.89,NNE,26,0.0,0.0,95,0.00,BKN,,0.00,WeatherDisplay:10.37,2013-09-01 11:56:00,
2013-09-01 07:58:00,72.3,70.8,29.90,NNE,26,0.0,0.0,95,0.00,BKN,,0.00,WeatherDisplay:10.37,2013-09-01 11:58:00,
2013-09-01 07:59:00,72.3,70.8,29.89,NNE,26,0.0,0.0,95,0.00,BKN,,0.00,WeatherDisplay:10.37,2013-09-01 11:59:00,
2013-09-01 08:00:00,72.3,70.8,29.89,NNE,26,0.0,0.0,95,0.00,BKN,,0.00,WeatherDisplay:10.37,2013-09-01 12:00:00,
2013-09-01 08:01:00,72.3,70.8,29.89,NNE,26,0.0,0.0,95,0.00,BKN,,0.00,WeatherDisplay:10.37,2013-09-01 12:01:00,
2013-09-01 08:04:00,72.5,71.0,29.90,NE,56,0.0,0.0,95,0.00,BKN,,0.00,WeatherDisplay:10.37,2013-09-01 12:04:00,
2013-09-01 08:05:00,72.5,71.0,29.90,NE,56,0.0,0.0,95,0.00,BKN,,0.00,WeatherDisplay:10.37,2013-09-01 12:05:00,
2013-09-01 08:06:00,72.5,71.0,29.89,SSE,159,0.0,0.0,95,0.00,BKN,,0.00,WeatherDisplay:10.37,2013-09-01 12:06:00,
2013-09-01 08:07:00,72.5,71.0,29.89,SSE,159,0.0,0.0,95,0.00,BKN,,0.00,WeatherDisplay:10.37,2013-09-01 12:07:00,
2013-09-01 08:10:00,72.5,71.0,29.89,SSW,198,1.3,3.5,95,0.00,BKN,,0.00,WeatherDisplay:10.37,2013-09-01 12:10:00,
2013-09-01 08:11:00,72.5,70.7,29.89,SSW,198,0.2,3.5,94,0.00,BKN,,0.00,WeatherDisplay:10.37,2013-09-01 12:11:00,
2013-09-01 08:12:00,72.5,70.7,29.89,SSW,198,0.0,1.1,94,0.00,BKN,,0.00,WeatherDisplay:10.37,2013-09-01 12:12:00,
2013-09-01 08:15:00,72.5,70.7,29.89,SSW,204,0.4,3.5,94,0.00,BKN,,0.00,WeatherDisplay:10.37,2013-09-01 12:15:00,
2013-09-01 08:16:00,72.5,71.0,29.89,SSW,203,0.0,1.1,95,0.00,BKN,,0.00,WeatherDisplay:10.37,2013-09-01 12:16:00,
2013-09-01 08:17:00,72.5,71.0,29.89,SSW,204,0.0,0.0,95,0.00,BKN,,0.00,WeatherDisplay:10.37,2013-09-01 12:17:00,
2013-09-01 08:20:00,72.5,71.0,29.89,SSW,204,0.0,0.0,95,0.00,BKN,,0.00,WeatherDisplay:10.37,2013-09-01 12:20:00,
2013-09-01 08:22:00,72.5,71.0,29.89,SSW,203,0.1,0.0,95,0.00,BKN,,0.00,WeatherDisplay:10.37,2013-09-01 12:22:00,
2013-09-01 08:25:00,72.5,70.7,29.90,SSW,204,0.0,0.0,94,0.00,BKN,,0.00,WeatherDisplay:10.37,2013-09-01 12:25:00,
2013-09-01 08:27:00,72.5,70.7,29.90,SSW,204,0.1,2.0,94,0.00,BKN,,0.00,WeatherDisplay:10.37,2013-09-01 12:27:00,
2013-09-01 08:28:00,72.5,70.7,29.90,SSW,204,0.3,2.3,94,0.00,BKN,,0.00,WeatherDisplay:10.37,2013-09-01 12:28:00,
2013-09-01 08:30:00,72.5,70.7,29.90,SSW,204,0.0,0.0,94,0.00,BKN,,0.00,WeatherDisplay:10.37,2013-09-01 12:30:00,
2013-09-01 08:33:00,72.4,70.9,29.90,North,354,4.5,6.0,95,0.00,BKN,,0.00,WeatherDisplay:10.37,2013-09-01 12:33:00,
2013-09-01 08:34:00,72.4,70.9,29.90,North,354,4.6,6.0,95,0.00,BKN,,0.00,WeatherDisplay:10.37,2013-09-01 12:34:00,
2013-09-01 08:35:00,72.3,70.8,29.90,NNW,346,6.0,6.9,95,0.00,BKN,,0.00,WeatherDisplay:10.37,2013-09-01 12:35:00,
2013-09-01 08:36:00,72.3,70.8,29.91,NW,326,4.9,8.1,95,0.00,BKN,,0.00,WeatherDisplay:10.37,2013-09-01 12:36:00,
2013-09-01 08:38:00,72.2,70.7,29.91,NNW,343,3.1,4.6,95,0.00,BKN,,0.00,WeatherDisplay:10.37,2013-09-01 12:38:00,
2013-09-01 08:39:00,72.1,70.6,29.91,North,355,4.9,6.0,95,0.00,BKN,,0.00,WeatherDisplay:10.37,2013-09-01 12:39:00,
2013-09-01 08:40:00,72.1,70.6,29.91,NNW,346,5.2,8.1,95,0.00,BKN,,0.00,WeatherDisplay:10.37,2013-09-01 12:40:00,
2013-09-01 08:41:00,72.0,70.5,29.91,North,351,3.5,5.8,95,0.00,BKN,,0.00,WeatherDisplay:10.37,2013-09-01 12:41:00,
2013-09-01 08:43:00,71.9,70.4,29.91,NNW,345,4.1,6.9,95,0.00,BKN,,0.01,WeatherDisplay:10.37,2013-09-01 12:43:00,
2013-09-01 08:44:00,71.8,70.6,29.91,NNW,345,2.4,4.6,96,0.01,RA,,0.02,WeatherDisplay:10.37,2013-09-01 12:44:00,
2013-09-01 08:45:00,71.8,70.6,29.91,NNW,346,1.3,3.5,96,0.02,RA,,0.03,WeatherDisplay:10.37,2013-09-01 12:45:00,
2013-09-01 08:46:00,71.8,70.6,29.91,North,350,0.2,5.0,96,0.03,RA,,0.04,WeatherDisplay:10.37,2013-09-01 12:46:00,
2013-09-01 08:48:00,71.7,70.5,29.91,NNW,341,3.0,5.8,96,0.06,RA,,0.06,WeatherDisplay:10.37,2013-09-01 12:48:00,
2013-09-01 08:49:00,71.7,70.5,29.91,NNW,341,0.4,5.8,96,0.06,RA,,0.06,WeatherDisplay:10.37,2013-09-01 12:49:00,
2013-09-01 08:50:00,71.6,70.4,29.91,NNW,341,0.0,2.3,96,0.06,RA,,0.06,WeatherDisplay:10.37,2013-09-01 12:50:00,
2013-09-01 08:51:00,71.7,70.5,29.91,NNW,341,0.0,0.0,96,0.06,RA,,0.06,WeatherDisplay:10.37,2013-09-01 12:51:00,
2013-09-01 08:53:00,71.7,70.5,29.90,ENE,63,0.9,4.0,96,0.07,RA,,0.08,WeatherDisplay:10.37,2013-09-01 12:53:00,
2013-09-01 08:54:00,71.7,70.5,29.90,East,90,3.4,4.6,96,0.08,RA,,0.08,WeatherDisplay:10.37,2013-09-01 12:54:00,
2013-09-01 08:55:00,71.7,70.5,29.89,East,91,4.0,5.0,96,0.08,RA,,0.08,WeatherDisplay:10.37,2013-09-01 12:55:00,
2013-09-01 08:56:00,71.7,70.5,29.89,East,83,1.7,4.6,96,0.09,RA,,0.09,WeatherDisplay:10.37,2013-09-01 12:56:00,
2013-09-01 08:58:00,71.7,70.5,29.90,East,84,0.0,0.0,96,0.09,RA,,0.10,WeatherDisplay:10.37,2013-09-01 12:58:00,
2013-09-01 08:59:00,71.7,70.5,29.90,East,83,0.0,0.0,96,0.10,RA,,0.10,WeatherDisplay:10.37,2013-09-01 12:59:00,
2013-09-01 09:00:00,71.7,70.5,29.90,East,83,0.0,0.0,96,0.10,RA,,0.10,WeatherDisplay:10.37,2013-09-01 13:00:00,
2013-09-01 09:01:00,71.8,70.6,29.90,East,83,0.0,0.0,96,0.10,-RA,,0.10,WeatherDisplay:10.37,2013-09-01 13:01:00,
2013-09-01 09:03:00,71.8,70.6,29.89,ESE,116,0.9,4.0,96,0.13,-RA,,0.17,WeatherDisplay:10.37,2013-09-01 13:03:00,
2013-09-01 09:05:00,71.8,70.6,29.89,SE,124,2.0,4.6,96,0.20,-RA,,0.20,WeatherDisplay:10.37,2013-09-01 13:05:00,
2013-09-01 09:06:00,71.8,70.6,29.89,ESE,123,0.2,3.5,96,0.21,-RA,,0.21,WeatherDisplay:10.37,2013-09-01 13:06:00,
2013-09-01 09:07:00,71.8,70.6,29.89,NE,37,0.4,2.3,96,0.21,-RA,,0.21,WeatherDisplay:10.37,2013-09-01 13:07:00,
2013-09-01 09:08:00,71.8,70.6,29.89,NNE,23,0.1,0.0,96,0.21,-RA,,0.21,WeatherDisplay:10.37,2013-09-01 13:08:00,
2013-09-01 09:11:00,71.7,70.5,29.89,North,355,1.1,3.5,96,0.22,-RA,,0.22,WeatherDisplay:10.37,2013-09-01 13:11:00,
2013-09-01 09:12:00,71.7,70.5,29.89,North,355,0.0,0.0,96,0.22,-RA,,0.22,WeatherDisplay:10.37,2013-09-01 13:12:00,
2013-09-01 09:14:00,71.8,70.6,29.89,North,355,0.0,1.1,96,0.22,-RA,,0.22,WeatherDisplay:10.37,2013-09-01 13:14:00,
2013-09-01 09:16:00,71.8,70.9,29.89,North,355,0.0,0.0,97,0.22,-RA,,0.22,WeatherDisplay:10.37,2013-09-01 13:16:00,
2013-09-01 09:17:00,71.9,70.7,29.89,North,355,0.0,0.0,96,0.22,-RA,,0.22,WeatherDisplay:10.37,2013-09-01 13:17:00,
2013-09-01 09:19:00,71.9,71.0,29.90,North,355,0.0,0.0,97,0.22,-RA,,0.22,WeatherDisplay:10.37,2013-09-01 13:19:00,
2013-09-01 09:21:00,72.0,71.1,29.90,North,355,0.0,0.0,97,0.22,-RA,,0.22,WeatherDisplay:10.37,2013-09-01 13:21:00,
2013-09-01 09:22:00,72.0,71.1,29.90,North,355,0.0,0.0,97,0.22,-RA,,0.22,WeatherDisplay:10.37,2013-09-01 13:22:00,
2013-09-01 09:24:00,72.1,71.2,29.90,North,355,0.0,0.0,97,0.22,-RA,,0.22,WeatherDisplay:10.37,2013-09-01 13:24:00,
2013-09-01 09:25:00,72.1,71.2,29.90,North,355,0.0,0.0,97,0.22,-RA,,0.22,WeatherDisplay:10.37,2013-09-01 13:25:00,
2013-09-01 09:26:00,72.2,71.3,29.90,North,355,0.0,0.0,97,0.22,-RA,,0.22,WeatherDisplay:10.37,2013-09-01 13:26:00,
2013-09-01 09:27:00,72.2,71.3,29.90,North,355,0.0,0.0,97,0.22,-RA,,0.22,WeatherDisplay:10.37,2013-09-01 13:27:00,
2013-09-01 09:30:00,72.3,71.4,29.89,North,355,0.0,0.0,97,0.22,-RA,,0.22,WeatherDisplay:10.37,2013-09-01 13:30:00,
2013-09-01 09:32:00,72.4,71.5,29.88,NE,50,0.0,1.1,97,0.22,BKN,,0.22,WeatherDisplay:10.37,2013-09-01 13:32:00,
2013-09-01 09:36:00,72.5,71.6,29.88,ESE,104,0.0,0.0,97,0.22,BKN,,0.22,WeatherDisplay:10.37,2013-09-01 13:36:00,
2013-09-01 09:37:00,72.5,71.6,29.88,ESE,107,0.0,0.0,97,0.22,BKN,,0.22,WeatherDisplay:10.37,2013-09-01 13:37:00,
2013-09-01 09:38:00,72.6,71.7,29.88,ESE,108,0.0,0.0,97,0.22,BKN,,0.22,WeatherDisplay:10.37,2013-09-01 13:38:00,
2013-09-01 09:41:00,72.8,71.9,29.89,ESE,107,0.0,0.0,97,0.22,BKN,,0.22,WeatherDisplay:10.37,2013-09-01 13:41:00,
2013-09-01 09:42:00,72.9,72.0,29.89,ESE,108,0.0,0.0,97,0.22,BKN,,0.22,WeatherDisplay:10.37,2013-09-01 13:42:00,
2013-09-01 09:44:00,73.0,72.1,29.89,ESE,108,0.0,0.0,97,0.21,BKN,,0.22,WeatherDisplay:10.37,2013-09-01 13:44:00,
2013-09-01 09:45:00,73.1,72.2,29.89,ESE,108,0.0,0.0,97,0.20,BKN,,0.22,WeatherDisplay:10.37,2013-09-01 13:45:00,
2013-09-01 09:46:00,73.1,72.2,29.89,ESE,117,0.0,1.1,97,0.19,BKN,,0.22,WeatherDisplay:10.37,2013-09-01 13:46:00,
2013-09-01 09:47:00,73.1,71.9,29.89,ESE,117,0.0,0.0,96,0.17,BKN,,0.22,WeatherDisplay:10.37,2013-09-01 13:47:00,
2013-09-01 09:49:00,73.1,71.9,29.90,ESE,117,0.0,0.0,96,0.16,BKN,,0.22,WeatherDisplay:10.37,2013-09-01 13:49:00,
2013-09-01 09:50:00,73.1,71.9,29.89,ESE,117,0.0,0.0,96,0.16,BKN,,0.22,WeatherDisplay:10.37,2013-09-01 13:50:00,
2013-09-01 09:51:00,73.1,71.9,29.90,ESE,117,0.0,0.0,96,0.16,BKN,,0.22,WeatherDisplay:10.37,2013-09-01 13:51:00,
2013-09-01 09:52:00,73.1,71.9,29.90,ESE,117,0.0,0.0,96,0.16,BKN,,0.22,WeatherDisplay:10.37,2013-09-01 13:52:00,
2013-09-01 09:53:00,73.1,71.9,29.90,ESE,117,0.0,0.0,96,0.15,BKN,,0.22,WeatherDisplay:10.37,2013-09-01 13:53:00,
2013-09-01 09:54:00,73.1,71.9,29.90,ESE,118,1.0,0.0,96,0.14,BKN,,0.22,WeatherDisplay:10.37,2013-09-01 13:54:00,
2013-09-01 09:55:00,73.1,71.9,29.90,ESE,118,0.2,3.5,96,0.14,BKN,,0.22,WeatherDisplay:10.37,2013-09-01 13:55:00,
2013-09-01 09:56:00,73.2,72.0,29.90,ESE,117,0.0,0.0,96,0.13,BKN,,0.22,WeatherDisplay:10.37,2013-09-01 13:56:00,
2013-09-01 09:58:00,73.1,71.9,29.90,ESE,117,0.0,0.0,96,0.13,BKN,,0.22,WeatherDisplay:10.37,2013-09-01 13:58:00,
2013-09-01 10:00:00,73.2,72.0,29.90,ESE,117,0.0,0.0,96,0.12,BKN,,0.22,WeatherDisplay:10.37,2013-09-01 14:00:00,
2013-09-01 10:01:00,73.2,71.7,29.90,ESE,117,0.0,0.0,95,0.12,BKN,,0.22,WeatherDisplay:10.37,2013-09-01 14:01:00,
2013-09-01 10:02:00,73.2,71.7,29.90,ESE,117,0.0,0.0,95,0.12,BKN,,0.22,WeatherDisplay:10.37,2013-09-01 14:02:00,
2013-09-01 10:03:00,73.2,71.7,29.90,ESE,117,0.0,0.0,95,0.09,BKN,,0.22,WeatherDisplay:10.37,2013-09-01 14:03:00,
2013-09-01 10:06:00,73.2,71.7,29.90,ESE,117,0.0,0.0,95,0.01,BKN,,0.22,WeatherDisplay:10.37,2013-09-01 14:06:00,
2013-09-01 10:07:00,73.2,71.7,29.91,ESE,117,0.0,0.0,95,0.01,BKN,,0.22,WeatherDisplay:10.37,2013-09-01 14:07:00,
2013-09-01 10:08:00,73.2,71.7,29.90,ESE,118,0.0,0.0,95,0.01,BKN,,0.22,WeatherDisplay:10.37,2013-09-01 14:08:00,
2013-09-01 10:11:00,73.3,71.8,29.90,ESE,118,0.3,0.0,95,0.00,BKN,,0.22,WeatherDisplay:10.37,2013-09-01 14:11:00,
2013-09-01 10:12:00,73.2,72.0,29.90,ESE,119,0.3,2.3,96,0.00,BKN,,0.22,WeatherDisplay:10.37,2013-09-01 14:12:00,
2013-09-01 10:13:00,73.3,72.1,29.91,ESE,119,0.0,0.0,96,0.00,BKN,,0.22,WeatherDisplay:10.37,2013-09-01 14:13:00,
2013-09-01 10:14:00,73.3,72.1,29.90,ESE,118,0.0,0.0,96,0.00,BKN,,0.22,WeatherDisplay:10.37,2013-09-01 14:14:00,
2013-09-01 10:17:00,73.2,71.7,29.90,SE,132,0.0,1.1,95,0.00,BKN,,0.22,WeatherDisplay:10.37,2013-09-01 14:17:00,
2013-09-01 10:18:00,73.3,72.1,29.91,SE,134,0.0,0.0,96,0.00,BKN,,0.22,WeatherDisplay:10.37,2013-09-01 14:18:00,
2013-09-01 10:19:00,73.3,72.1,29.91,SE,135,0.1,0.0,96,0.00,BKN,,0.22,WeatherDisplay:10.37,2013-09-01 14:19:00,
2013-09-01 10:22:00,73.3,72.1,29.91,SE,136,0.0,0.0,96,0.00,BKN,,0.22,WeatherDisplay:10.37,2013-09-01 14:22:00,
2013-09-01 10:23:00,73.3,72.1,29.91,SE,136,0.0,0.0,96,0.00,BKN,,0.22,WeatherDisplay:10.37,2013-09-01 14:23:00,
2013-09-01 10:24:00,73.3,72.1,29.91,SE,136,0.0,1.1,96,0.00,BKN,,0.22,WeatherDisplay:10.37,2013-09-01 14:24:00,
2013-09-01 10:26:00,73.3,72.1,29.90,SE,136,0.0,0.0,96,0.00,BKN,,0.22,WeatherDisplay:10.37,2013-09-01 14:26:00,
2013-09-01 10:27:00,73.3,72.1,29.90,SE,136,0.0,0.0,96,0.00,BKN,,0.22,WeatherDisplay:10.37,2013-09-01 14:27:00,
2013-09-01 10:28:00,73.4,72.2,29.90,SE,136,0.0,0.0,96,0.00,BKN,,0.22,WeatherDisplay:10.37,2013-09-01 14:28:00,
2013-09-01 10:29:00,73.5,72.3,29.90,SE,136,0.0,0.0,96,0.00,BKN,,0.22,WeatherDisplay:10.37,2013-09-01 14:29:00,
2013-09-01 10:30:00,73.5,72.3,29.90,SE,136,0.0,0.0,96,0.00,BKN,,0.22,WeatherDisplay:10.37,2013-09-01 14:30:00,
2013-09-01 10:31:00,73.6,72.4,29.90,SE,136,0.0,0.0,96,0.00,OVC,,0.22,WeatherDisplay:10.37,2013-09-01 14:31:00,
2013-09-01 10:32:00,73.6,72.4,29.90,SE,136,0.0,1.1,96,0.00,OVC,,0.22,WeatherDisplay:10.37,2013-09-01 14:32:00,
2013-09-01 10:34:00,73.8,72.6,29.90,SE,136,0.0,0.0,96,0.00,OVC,,0.22,WeatherDisplay:10.37,2013-09-01 14:34:00,
2013-09-01 10:35:00,73.9,73.0,29.90,SE,136,0.0,0.0,97,0.00,OVC,,0.22,WeatherDisplay:10.37,2013-09-01 14:35:00,
2013-09-01 10:37:00,74.2,73.0,29.90,SE,136,0.0,0.0,96,0.00,OVC,,0.22,WeatherDisplay:10.37,2013-09-01 14:37:00,
2013-09-01 10:38:00,74.3,73.1,29.90,SE,136,0.0,0.0,96,0.00,OVC,,0.22,WeatherDisplay:10.37,2013-09-01 14:38:00,
2013-09-01 10:39:00,74.4,73.2,29.90,SE,137,0.1,1.1,96,0.00,OVC,,0.22,WeatherDisplay:10.37,2013-09-01 14:39:00,
2013-09-01 10:40:00,74.5,73.3,29.90,SE,136,0.0,0.0,96,0.00,OVC,,0.22,WeatherDisplay:10.37,2013-09-01 14:40:00,
2013-09-01 10:43:00,74.8,73.6,29.90,SSE,150,0.5,3.5,96,0.00,OVC,,0.22,WeatherDisplay:10.37,2013-09-01 14:43:00,
2013-09-01 10:44:00,74.9,73.7,29.89,SSE,151,0.1,1.1,96,0.00,OVC,,0.22,WeatherDisplay:10.37,2013-09-01 14:44:00,
2013-09-01 10:45:00,75.0,73.8,29.89,SE,137,0.1,2.3,96,0.00,OVC,,0.22,WeatherDisplay:10.37,2013-09-01 14:45:00,
2013-09-01 10:46:00,75.1,73.9,29.89,SE,137,0.0,0.0,96,0.00,OVC,,0.22,WeatherDisplay:10.37,2013-09-01 14:46:00,
2013-09-01 10:48:00,75.2,73.7,29.89,South,183,1.3,3.5,95,0.00,OVC,,0.22,WeatherDisplay:10.37,2013-09-01 14:48:00,
2013-09-01 10:49:00,75.2,73.7,29.89,South,180,0.1,3.5,95,0.00,OVC,,0.22,WeatherDisplay:10.37,2013-09-01 14:49:00,
2013-09-01 10:50:00,75.2,73.7,29.89,South,180,0.0,0.0,95,0.00,OVC,,0.22,WeatherDisplay:10.37,2013-09-01 14:50:00,
2013-09-01 10:51:00,75.2,73.7,29.88,SSW,197,3.4,5.8,95,0.00,OVC,,0.22,WeatherDisplay:10.37,2013-09-01 14:51:00,
2013-09-01 10:53:00,75.3,73.8,29.89,South,188,1.4,3.5,95,0.00,OVC,,0.22,WeatherDisplay:10.37,2013-09-01 14:53:00,
2013-09-01 10:54:00,75.3,73.5,29.89,South,188,1.1,3.5,94,0.00,OVC,,0.22,WeatherDisplay:10.37,2013-09-01 14:54:00,
2013-09-01 10:55:00,75.4,73.9,29.89,South,187,0.0,2.3,95,0.00,OVC,,0.22,WeatherDisplay:10.37,2013-09-01 14:55:00,
2013-09-01 10:56:00,75.4,73.9,29.89,South,188,0.0,0.0,95,0.00,OVC,,0.22,WeatherDisplay:10.37,2013-09-01 14:56:00,
2013-09-01 10:59:00,75.7,74.2,29.89,SW,229,2.4,4.6,95,0.00,OVC,,0.22,WeatherDisplay:10.37,2013-09-01 14:59:00,
2013-09-01 11:01:00,75.7,74.2,29.89,SW,222,0.2,2.3,95,0.00,BKN,,0.22,WeatherDisplay:10.37,2013-09-01 15:01:00,
2013-09-01 11:02:00,75.8,74.3,29.89,SW,222,0.0,1.1,95,0.00,BKN,,0.22,WeatherDisplay:10.37,2013-09-01 15:02:00,
2013-09-01 11:03:00,75.9,74.4,29.89,WSW,255,1.3,4.6,95,0.00,BKN,,0.22,WeatherDisplay:10.37,2013-09-01 15:03:00,
2013-09-01 11:04:00,76.1,74.6,29.89,WSW,255,0.0,3.5,95,0.00,BKN,,0.22,WeatherDisplay:10.37,2013-09-01 15:04:00,
2013-09-01 11:05:00,76.1,74.6,29.89,SSW,206,1.2,3.5,95,0.00,BKN,,0.22,WeatherDisplay:10.37,2013-09-01 15:05:00,
2013-09-01 11:06:00,76.2,74.3,29.91,SSW,202,2.9,8.1,94,0.00,BKN,,0.22,WeatherDisplay:10.37,2013-09-01 15:06:00,
2013-09-01 11:07:00,76.4,74.5,29.89,SSW,202,0.8,8.1,94,0.00,BKN,,0.22,WeatherDisplay:10.37,2013-09-01 15:07:00,
2013-09-01 11:08:00,76.3,74.4,29.89,SSW,203,2.6,5.8,94,0.00,BKN,,0.22,WeatherDisplay:10.37,2013-09-01 15:08:00,
2013-09-01 11:09:00,76.3,74.4,29.89,SSW,193,3.7,6.9,94,0.00,BKN,,0.22,WeatherDisplay:10.37,2013-09-01 15:09:00,
2013-09-01 11:10:00,76.1,73.9,29.89,SSW,209,3.0,5.8,93,0.00,BKN,,0.22,WeatherDisplay:10.37,2013-09-01 15:10:00,
2013-09-01 11:11:00,76.5,74.6,29.86,SW,230,3.4,3.5,94,0.00,BKN,,0.22,WeatherDisplay:10.37,2013-09-01 15:11:00,
2013-09-01 11:12:00,76.2,74.0,29.89,SSW,206,4.1,5.8,93,0.00,BKN,,0.22,WeatherDisplay:10.37,2013-09-01 15:12:00,
2013-09-01 11:13:00,76.3,74.4,29.86,SSW,196,4.8,5.8,94,0.00,BKN,,0.22,WeatherDisplay:10.37,2013-09-01 15:13:00,
2013-09-01 11:14:00,76.8,74.6,29.89,SSW,201,4.8,10.4,93,0.00,BKN,,0.22,WeatherDisplay:10.37,2013-09-01 15:14:00,
2013-09-01 11:15:00,77.0,75.1,29.88,South,181,2.6,10.4,94,0.00,BKN,,0.22,WeatherDisplay:10.37,2013-09-01 15:15:00,
2013-09-01 11:17:00,77.3,75.4,29.89,SSW,201,9.6,11.5,94,0.00,BKN,,0.22,WeatherDisplay:10.37,2013-09-01 15:17:00,
2013-09-01 11:18:00,77.4,74.9,29.89,SW,220,6.1,12.7,92,0.00,BKN,,0.22,WeatherDisplay:10.37,2013-09-01 15:18:00,
2013-09-01 11:19:00,77.6,75.1,29.87,SSW,208,8.3,9.2,92,0.00,BKN,,0.22,WeatherDisplay:10.37,2013-09-01 15:19:00,
2013-09-01 11:21:00,77.7,74.9,29.89,SSW,200,2.7,6.9,91,0.00,BKN,,0.22,WeatherDisplay:10.37,2013-09-01 15:21:00,
2013-09-01 11:22:00,77.8,75.3,29.88,WSW,242,4.2,9.2,92,0.00,BKN,,0.22,WeatherDisplay:10.37,2013-09-01 15:22:00,
2013-09-01 11:23:00,78.0,75.5,29.88,SSW,198,5.3,11.5,92,0.00,BKN,,0.22,WeatherDisplay:10.37,2013-09-01 15:23:00,
2013-09-01 11:24:00,78.1,75.3,29.89,South,191,8.4,15.0,91,0.00,BKN,,0.22,WeatherDisplay:10.37,2013-09-01 15:24:00,
2013-09-01 11:26:00,78.4,75.6,29.89,SW,214,7.5,11.5,91,0.00,BKN,,0.22,WeatherDisplay:10.37,2013-09-01 15:26:00,
2013-09-01 11:27:00,78.6,75.8,29.89,SSW,197,7.9,13.8,91,0.00,BKN,,0.22,WeatherDisplay:10.37,2013-09-01 15:27:00,
2013-09-01 11:28:00,78.6,75.8,29.89,SSW,212,2.6,9.2,91,0.00,BKN,,0.22,WeatherDisplay:10.37,2013-09-01 15:28:00,
2013-09-01 11:29:00,79.2,76.3,29.90,SW,226,5.0,6.9,91,0.00,BKN,,0.22,WeatherDisplay:10.37,2013-09-01 15:29:00,
2013-09-01 11:31:00,79.3,75.8,29.89,SSW,197,7.5,13.8,89,0.00,BKN,,0.22,WeatherDisplay:10.37,2013-09-01 15:31:00,
2013-09-01 11:32:00,79.4,75.9,29.89,SSW,201,6.0,11.5,89,0.00,BKN,,0.22,WeatherDisplay:10.37,2013-09-01 15:32:00,
2013-09-01 11:33:00,79.5,75.6,29.89,SSW,210,9.3,13.8,88,0.00,BKN,,0.22,WeatherDisplay:10.37,2013-09-01 15:33:00,
2013-09-01 11:34:00,79.5,75.3,29.89,SSW,196,10.9,15.0,87,0.00,BKN,,0.22,WeatherDisplay:10.37,2013-09-01 15:34:00,
2013-09-01 11:37:00,79.4,75.2,29.89,SSW,201,8.2,15.0,87,0.00,BKN,,0.22,WeatherDisplay:10.37,2013-09-01 15:37:00,
2013-09-01 11:38:00,79.4,75.2,29.90,WSW,247,6.7,15.0,87,0.00,BKN,,0.22,WeatherDisplay:10.37,2013-09-01 15:38:00,
2013-09-01 11:39:00,79.2,75.0,29.90,SW,234,8.6,16.1,87,0.00,BKN,,0.22,WeatherDisplay:10.37,2013-09-01 15:39:00,
2013-09-01 11:42:00,79.2,75.3,29.89,SW,232,8.1,11.5,88,0.00,BKN,,0.22,WeatherDisplay:10.37,2013-09-01 15:42:00,
2013-09-01 11:43:00,79.2,75.3,29.89,South,186,4.7,8.1,88,0.00,BKN,,0.22,WeatherDisplay:10.37,2013-09-01 15:43:00,
2013-09-01 11:44:00,79.4,75.5,29.89,SSW,209,5.1,10.0,88,0.00,BKN,,0.22,WeatherDisplay:10.37,2013-09-01 15:44:00,
2013-09-01 11:45:00,79.5,75.3,29.89,SSW,198,12.3,18.4,87,0.00,BKN,,0.22,WeatherDisplay:10.37,2013-09-01 15:45:00,
2013-09-01 11:46:00,79.7,75.5,29.89,SSW,192,9.7,13.8,87,0.00,BKN,,0.22,WeatherDisplay:10.37,2013-09-01 15:46:00,
2013-09-01 11:47:00,79.7,75.5,29.89,SSW,203,4.5,11.5,87,0.00,BKN,,0.22,WeatherDisplay:10.37,2013-09-01 15:47:00,
2013-09-01 11:48:00,79.8,75.2,29.89,SSW,194,9.4,13.8,86,0.00,BKN,,0.22,WeatherDisplay:10.37,2013-09-01 15:48:00,
2013-09-01 11:49:00,80.0,75.4,29.89,SSW,212,6.3,13.8,86,0.00,BKN,,0.22,WeatherDisplay:10.37,2013-09-01 15:49:00,
2013-09-01 11:50:00,80.0,75.4,29.89,SSW,205,7.5,10.4,86,0.00,BKN,,0.22,WeatherDisplay:10.37,2013-09-01 15:50:00,
2013-09-01 11:52:00,80.1,75.5,29.89,SSW,207,10.2,15.0,86,0.00,BKN,,0.22,WeatherDisplay:10.37,2013-09-01 15:52:00,
2013-09-01 11:53:00,80.2,75.3,29.89,SSW,197,12.7,17.0,85,0.00,BKN,,0.22,WeatherDisplay:10.37,2013-09-01 15:53:00,
2013-09-01 11:55:00,80.2,74.9,29.89,SSW,203,11.8,13.8,84,0.00,BKN,,0.22,WeatherDisplay:10.37,2013-09-01 15:55:00,
2013-09-01 11:57:00,80.1,75.2,29.89,SSW,205,10.5,13.8,85,0.00,BKN,,0.22,WeatherDisplay:10.37,2013-09-01 15:57:00,
2013-09-01 11:58:00,80.0,75.1,29.89,SSW,197,9.5,15.0,85,0.00,BKN,,0.22,WeatherDisplay:10.37,2013-09-01 15:58:00,
2013-09-01 12:00:00,79.9,75.0,29.89,SSW,208,8.9,13.8,85,0.00,BKN,,0.22,WeatherDisplay:10.37,2013-09-01 16:00:00,
2013-09-01 12:01:00,79.9,75.3,29.89,SSW,195,6.8,11.5,86,0.00,BKN,,0.22,WeatherDisplay:10.37,2013-09-01 16:01:00,
2013-09-01 12:02:00,79.9,75.0,29.89,WSW,245,10.6,13.8,85,0.00,BKN,,0.22,WeatherDisplay:10.37,2013-09-01 16:02:00,
2013-09-01 12:04:00,80.0,75.4,29.89,SSW,197,10.2,15.0,86,0.00,BKN,,0.22,WeatherDisplay:10.37,2013-09-01 16:04:00,
2013-09-01 12:05:00,80.0,74.7,29.89,SSW,206,9.8,16.1,84,0.00,BKN,,0.22,WeatherDisplay:10.37,2013-09-01 16:05:00,
2013-09-01 12:06:00,80.1,75.5,29.89,SSW,208,6.6,12.7,86,0.00,BKN,,0.22,WeatherDisplay:10.37,2013-09-01 16:06:00,
2013-09-01 12:07:00,80.1,74.8,29.89,SW,233,7.1,13.0,84,0.00,BKN,,0.22,WeatherDisplay:10.37,2013-09-01 16:07:00,
2013-09-01 12:09:00,80.2,74.6,29.89,WSW,243,10.6,15.0,83,0.00,BKN,,0.22,WeatherDisplay:10.37,2013-09-01 16:09:00,
2013-09-01 12:10:00,80.3,75.0,29.89,SSW,209,7.9,11.5,84,0.00,BKN,,0.22,WeatherDisplay:10.37,2013-09-01 16:10:00,
2013-09-01 12:12:00,80.5,75.2,29.89,SW,224,7.1,11.5,84,0.00,BKN,,0.22,WeatherDisplay:10.37,2013-09-01 16:12:00,
2013-09-01 12:13:00,80.6,74.6,29.89,WSW,238,10.2,15.0,82,0.00,BKN,,0.22,WeatherDisplay:10.37,2013-09-01 16:13:00,
2013-09-01 12:14:00,80.7,75.1,29.89,WSW,240,11.0,17.3,83,0.00,BKN,,0.22,WeatherDisplay:10.37,2013-09-01 16:14:00,
2013-09-01 12:15:00,80.7,74.3,29.89,SSW,204,10.1,19.6,81,0.00,BKN,,0.22,WeatherDisplay:10.37,2013-09-01 16:15:00,
2013-09-01 12:17:00,80.8,74.8,29.89,SSW,211,12.3,18.4,82,0.00,BKN,,0.22,WeatherDisplay:10.37,2013-09-01 16:17:00,
2013-09-01 12:18:00,80.8,74.8,29.89,South,190,11.9,17.3,82,0.00,BKN,,0.22,WeatherDisplay:10.37,2013-09-01 16:18:00,
2013-09-01 12:19:00,80.8,74.8,29.89,SSW,200,9.5,15.0,82,0.00,BKN,,0.22,WeatherDisplay:10.37,2013-09-01 16:19:00,
2013-09-01 12:20:00,81.0,75.3,29.89,SSW,199,5.7,12.7,83,0.00,BKN,,0.22,WeatherDisplay:10.37,2013-09-01 16:20:00,
2013-09-01 12:23:00,81.4,75.4,29.89,SW,220,9.0,16.1,82,0.00,BKN,,0.22,WeatherDisplay:10.37,2013-09-01 16:23:00,
2013-09-01 12:24:00,81.5,75.1,29.89,WSW,238,9.9,17.3,81,0.00,BKN,,0.22,WeatherDisplay:10.37,2013-09-01 16:24:00,
2013-09-01 12:25:00,81.4,74.6,29.89,South,190,12.1,15.0,80,0.00,BKN,,0.22,WeatherDisplay:10.37,2013-09-01 16:25:00,
2013-09-01 12:28:00,81.5,75.5,29.89,SSW,209,8.4,15.0,82,0.00,BKN,,0.22,WeatherDisplay:10.37,2013-09-01 16:28:00,
2013-09-01 12:29:00,81.5,75.1,29.89,SSW,199,6.9,14.0,81,0.00,BKN,,0.22,WeatherDisplay:10.37,2013-09-01 16:29:00,
2013-09-01 12:30:00,81.6,75.2,29.89,SSW,213,10.6,13.8,81,0.00,BKN,,0.22,WeatherDisplay:10.37,2013-09-01 16:30:00,
2013-09-01 12:31:00,81.6,75.2,29.89,SW,221,10.2,17.3,81,0.00,BKN,,0.22,WeatherDisplay:10.37,2013-09-01 16:31:00,
2013-09-01 12:33:00,81.8,74.6,29.89,SSW,212,8.8,11.5,79,0.00,BKN,,0.22,WeatherDisplay:10.37,2013-09-01 16:33:00,
2013-09-01 12:34:00,81.9,75.1,29.89,SW,227,4.3,11.5,80,0.00,BKN,,0.22,WeatherDisplay:10.37,2013-09-01 16:34:00,
2013-09-01 12:35:00,82.0,74.8,29.89,WSW,250,6.2,10.4,79,0.00,BKN,,0.22,WeatherDisplay:10.37,2013-09-01 16:35:00,
2013-09-01 12:36:00,82.0,75.2,29.89,WSW,240,6.1,8.1,80,0.00,BKN,,0.22,WeatherDisplay:10.37,2013-09-01 16:36:00,
2013-09-01 12:38:00,82.3,75.1,29.89,SW,218,4.7,8.1,79,0.00,BKN,,0.22,WeatherDisplay:10.37,2013-09-01 16:38:00,
2013-09-01 12:39:00,82.3,74.7,29.89,SW,219,5.9,9.2,78,0.00,BKN,,0.22,WeatherDisplay:10.37,2013-09-01 16:39:00,
2013-09-01 12:40:00,82.4,75.6,29.89,WSW,242,6.7,12.0,80,0.00,BKN,,0.22,WeatherDisplay:10.37,2013-09-01 16:40:00,
2013-09-01 12:41:00,82.4,75.2,29.89,WSW,253,7.2,11.5,79,0.00,BKN,,0.22,WeatherDisplay:10.37,2013-09-01 16:41:00,
2013-09-01 12:42:00,82.4,74.8,29.89,SW,235,11.7,11.7,78,0.00,BKN,,0.22,WeatherDisplay:10.37,2013-09-01 16:42:00,
2013-09-01 12:43:00,82.4,74.5,29.89,West,259,7.6,11.5,77,0.00,BKN,,0.22,WeatherDisplay:10.37,2013-09-01 16:43:00,
2013-09-01 12:45:00,82.5,75.3,29.89,SW,217,5.3,16.1,79,0.00,BKN,,0.22,WeatherDisplay:10.37,2013-09-01 16:45:00,
2013-09-01 12:46:00,82.6,75.0,29.89,SW,219,7.6,12.7,78,0.00,BKN,,0.22,WeatherDisplay:10.37,2013-09-01 16:46:00,
2013-09-01 12:47:00,82.7,75.5,29.89,SSW,210,10.3,15.0,79,0.00,BKN,,0.22,WeatherDisplay:10.37,2013-09-01 16:47:00,
2013-09-01 12:48:00,82.8,75.2,29.89,SSW,203,12.0,15.0,78,0.00,BKN,,0.22,WeatherDisplay:10.37,2013-09-01 16:48:00,
2013-09-01 12:50:00,83.0,75.4,29.89,SW,226,8.3,11.5,78,0.00,BKN,,0.22,WeatherDisplay:10.37,2013-09-01 16:50:00,
2013-09-01 12:51:00,83.0,75.0,29.89,SSW,206,8.5,17.0,77,0.00,BKN,,0.22,WeatherDisplay:10.37,2013-09-01 16:51:00,
2013-09-01 12:52:00,82.8,74.8,29.89,SW,236,9.2,17.3,77,0.00,BKN,,0.22,WeatherDisplay:10.37,2013-09-01 16:52:00,
2013-09-01 12:53:00,82.8,74.5,29.88,SW,224,7.1,13.8,76,0.00,BKN,,0.22,WeatherDisplay:10.37,2013-09-01 16:53:00,
2013-09-01 12:54:00,82.9,74.9,29.88,SSW,199,4.0,13.8,77,0.00,BKN,,0.22,WeatherDisplay:10.37,2013-09-01 16:54:00,
2013-09-01 12:55:00,83.0,75.4,29.89,SSW,206,6.4,10.0,78,0.00,BKN,,0.22,WeatherDisplay:10.37,2013-09-01 16:55:00,
2013-09-01 12:56:00,83.1,75.5,29.89,SW,221,6.5,11.5,78,0.00,BKN,,0.22,WeatherDisplay:10.37,2013-09-01 16:56:00,
2013-09-01 12:58:00,83.3,75.7,29.88,SW,220,8.4,13.8,78,0.00,BKN,,0.22,WeatherDisplay:10.37,2013-09-01 16:58:00,
2013-09-01 12:59:00,83.4,75.4,29.88,SW,231,11.2,16.1,77,0.00,BKN,,0.22,WeatherDisplay:10.37,2013-09-01 16:59:00,
2013-09-01 13:01:00,83.4,74.2,29.89,SW,233,7.2,13.8,74,0.00,BKN,,0.22,WeatherDisplay:10.37,2013-09-01 17:01:00,
2013-09-01 13:02:00,83.5,75.1,29.88,SW,222,10.4,17.3,76,0.00,BKN,,0.22,WeatherDisplay:10.37,2013-09-01 17:02:00,
2013-09-01 13:03:00,83.5,74.3,29.88,SSW,211,10.7,17.3,74,0.00,BKN,,0.22,WeatherDisplay:10.37,2013-09-01 17:03:00,
2013-09-01 13:04:00,83.6,74.0,29.88,SW,215,8.9,13.8,73,0.00,BKN,,0.22,WeatherDisplay:10.37,2013-09-01 17:04:00,
2013-09-01 13:06:00,83.4,73.4,29.88,WSW,238,7.3,17.3,72,0.00,BKN,,0.22,WeatherDisplay:10.37,2013-09-01 17:06:00,
2013-09-01 13:08:00,83.5,73.9,29.88,SW,228,8.3,11.5,73,0.00,BKN,,0.22,WeatherDisplay:10.37,2013-09-01 17:08:00,
2013-09-01 13:09:00,83.6,73.2,29.88,WSW,239,9.4,12.7,71,0.00,BKN,,0.22,WeatherDisplay:10.37,2013-09-01 17:09:00,
2013-09-01 13:11:00,83.5,73.1,29.89,WSW,249,8.9,13.8,71,0.00,BKN,,0.22,WeatherDisplay:10.37,2013-09-01 17:11:00,
2013-09-01 13:15:00,83.5,73.5,29.89,WSW,257,8.9,15.0,72,0.00,BKN,,0.22,WeatherDisplay:10.37,2013-09-01 17:15:00,
2013-09-01 13:16:00,83.5,73.5,29.89,West,264,8.5,13.8,72,0.00,BKN,,0.22,WeatherDisplay:10.37,2013-09-01 17:16:00,
2013-09-01 13:20:00,83.6,74.8,29.89,SW,225,6.7,11.5,75,0.00,BKN,,0.22,WeatherDisplay:10.37,2013-09-01 17:20:00,
2013-09-01 13:21:00,83.7,74.1,29.89,WSW,249,6.4,10.0,73,0.00,BKN,,0.22,WeatherDisplay:10.37,2013-09-01 17:21:00,
2013-09-01 13:22:00,83.7,74.1,29.89,WSW,238,6.5,10.4,73,0.00,BKN,,0.22,WeatherDisplay:10.37,2013-09-01 17:22:00,
2013-09-01 13:25:00,83.5,73.5,29.89,West,277,5.5,16.1,72,0.00,BKN,,0.22,WeatherDisplay:10.37,2013-09-01 17:25:00,
2013-09-01 13:26:00,83.4,73.4,29.89,WSW,238,4.5,8.1,72,0.00,BKN,,0.22,WeatherDisplay:10.37,2013-09-01 17:26:00,
2013-09-01 13:27:00,83.5,73.9,29.89,WSW,258,5.6,10.4,73,0.00,BKN,,0.22,WeatherDisplay:10.37,2013-09-01 17:27:00,
2013-09-01 13:31:00,83.7,73.7,29.89,WSW,243,8.3,11.5,72,0.00,BKN,,0.22,WeatherDisplay:10.37,2013-09-01 17:31:00,
2013-09-01 13:32:00,83.8,73.0,29.89,WSW,246,7.0,10.4,70,0.00,BKN,,0.22,WeatherDisplay:10.37,2013-09-01 17:32:00,
2013-09-01 13:33:00,83.9,73.9,29.89,WSW,238,4.4,6.9,72,0.00,BKN,,0.22,WeatherDisplay:10.37,2013-09-01 17:33:00,
2013-09-01 13:36:00,84.4,74.8,29.89,SW,232,5.2,8.1,73,0.00,BKN,,0.22,WeatherDisplay:10.37,2013-09-01 17:36:00,
2013-09-01 13:37:00,84.4,74.0,29.89,WSW,240,7.1,13.8,71,0.00,BKN,,0.22,WeatherDisplay:10.37,2013-09-01 17:37:00,
2013-09-01 13:38:00,84.5,73.2,29.89,WNW,292,7.3,13.8,69,0.00,BKN,,0.22,WeatherDisplay:10.37,2013-09-01 17:38:00,
2013-09-01 13:41:00,84.6,75.4,29.89,WSW,256,2.3,8.0,74,0.00,BKN,,0.22,WeatherDisplay:10.37,2013-09-01 17:41:00,
2013-09-01 13:42:00,84.7,73.8,29.89,SW,230,5.5,10.4,70,0.00,BKN,,0.22,WeatherDisplay:10.37,2013-09-01 17:42:00,
2013-09-01 13:43:00,84.8,73.5,29.89,SW,226,4.8,11.5,69,0.00,BKN,,0.22,WeatherDisplay:10.37,2013-09-01 17:43:00,
2013-09-01 13:47:00,85.0,73.3,29.89,WSW,257,7.8,11.5,68,0.00,BKN,,0.22,WeatherDisplay:10.37,2013-09-01 17:47:00,
2013-09-01 13:48:00,84.9,73.2,29.89,West,269,9.0,15.0,68,0.00,BKN,,0.22,WeatherDisplay:10.37,2013-09-01 17:48:00,
2013-09-01 13:49:00,84.5,73.6,29.89,WSW,254,7.3,10.4,70,0.00,BKN,,0.22,WeatherDisplay:10.37,2013-09-01 17:49:00,
2013-09-01 13:52:00,84.1,74.1,29.89,SSW,209,3.6,6.9,72,0.00,BKN,,0.22,WeatherDisplay:10.37,2013-09-01 17:52:00,
2013-09-01 13:53:00,84.1,74.5,29.89,SW,217,0.6,3.5,73,0.00,BKN,,0.22,WeatherDisplay:10.37,2013-09-01 17:53:00,
2013-09-01 13:55:00,83.8,73.4,29.89,SW,216,5.6,10.4,71,0.00,BKN,,0.22,WeatherDisplay:10.37,2013-09-01 17:55:00,
2013-09-01 13:57:00,83.8,73.8,29.89,West,272,6.9,11.5,72,0.00,BKN,,0.22,WeatherDisplay:10.37,2013-09-01 17:57:00,
2013-09-01 13:58:00,83.9,73.9,29.89,WSW,244,6.1,8.1,72,0.00,BKN,,0.22,WeatherDisplay:10.37,2013-09-01 17:58:00,
2013-09-01 13:59:00,83.9,73.5,29.89,SW,215,6.4,9.2,71,0.00,BKN,,0.22,WeatherDisplay:10.37,2013-09-01 17:59:00,
2013-09-01 14:02:00,84.6,74.6,29.88,SW,222,2.6,4.6,72,0.00,BKN,,0.22,WeatherDisplay:10.37,2013-09-01 18:02:00,
2013-09-01 14:03:00,84.8,74.8,29.88,West,272,3.7,6.0,72,0.00,BKN,,0.22,WeatherDisplay:10.37,2013-09-01 18:03:00,
2013-09-01 14:04:00,84.9,74.4,29.88,WSW,252,4.8,8.1,71,0.00,BKN,,0.22,WeatherDisplay:10.37,2013-09-01 18:04:00,
2013-09-01 14:06:00,85.2,74.7,29.88,NNW,332,4.3,8.1,71,0.00,BKN,,0.22,WeatherDisplay:10.37,2013-09-01 18:06:00,
2013-09-01 14:07:00,85.2,74.3,29.88,WSW,257,4.3,7.0,70,0.00,BKN,,0.22,WeatherDisplay:10.37,2013-09-01 18:07:00,
2013-09-01 14:08:00,85.3,75.2,29.88,WSW,237,2.1,6.9,72,0.00,BKN,,0.22,WeatherDisplay:10.37,2013-09-01 18:08:00,
2013-09-01 14:10:00,85.7,75.6,29.88,SW,229,4.6,8.1,72,0.00,BKN,,0.22,WeatherDisplay:10.37,2013-09-01 18:10:00,
2013-09-01 14:12:00,86.1,74.7,29.88,SSW,211,3.5,10.4,69,0.00,BKN,,0.22,WeatherDisplay:10.37,2013-09-01 18:12:00,
2013-09-01 14:13:00,86.2,75.3,29.88,SW,219,4.0,6.0,70,0.00,BKN,,0.22,WeatherDisplay:10.37,2013-09-01 18:13:00,
2013-09-01 14:15:00,86.5,75.1,29.88,SW,228,6.3,9.2,69,0.00,BKN,,0.22,WeatherDisplay:10.37,2013-09-01 18:15:00,
2013-09-01 14:17:00,86.3,73.6,29.88,West,274,6.2,11.5,66,0.00,BKN,,0.22,WeatherDisplay:10.37,2013-09-01 18:17:00,
2013-09-01 14:18:00,86.1,73.9,29.88,WSW,241,7.7,9.0,67,0.00,BKN,,0.22,WeatherDisplay:10.37,2013-09-01 18:18:00,
2013-09-01 14:19:00,86.0,74.2,29.88,SW,231,8.6,11.5,68,0.00,BKN,,0.22,WeatherDisplay:10.37,2013-09-01 18:19:00,
2013-09-01 14:20:00,85.8,74.4,29.88,SSW,197,3.8,10.4,69,0.00,BKN,,0.22,WeatherDisplay:10.37,2013-09-01 18:20:00,
2013-09-01 14:22:00,85.9,75.0,29.87,WSW,252,5.9,8.1,70,0.00,BKN,,0.22,WeatherDisplay:10.37,2013-09-01 18:22:00,
2013-09-01 14:24:00,86.1,75.2,29.87,SSW,212,2.0,6.9,70,0.00,BKN,,0.22,WeatherDisplay:10.37,2013-09-01 18:24:00,
2013-09-01 14:25:00,86.5,75.5,29.88,WSW,254,5.0,9.2,70,0.00,BKN,,0.22,WeatherDisplay:10.37,2013-09-01 18:25:00,
2013-09-01 14:27:00,86.4,75.0,29.87,WSW,257,5.8,10.4,69,0.00,BKN,,0.22,WeatherDisplay:10.37,2013-09-01 18:27:00,
2013-09-01 14:29:00,86.3,74.9,29.87,WSW,250,3.5,10.4,69,0.00,BKN,,0.22,WeatherDisplay:10.37,2013-09-01 18:29:00,
2013-09-01 14:30:00,85.8,74.0,29.87,WNW,283,6.1,8.1,68,0.00,BKN,,0.22,WeatherDisplay:10.37,2013-09-01 18:30:00,
2013-09-01 14:31:00,85.7,74.4,29.87,WNW,287,6.3,9.2,69,0.00,BKN,,0.22,WeatherDisplay:10.37,2013-09-01 18:31:00,
2013-09-01 14:33:00,85.5,75.0,29.87,WSW,238,1.5,3.5,71,0.00,BKN,,0.22,WeatherDisplay:10.37,2013-09-01 18:33:00,
2013-09-01 14:34:00,85.4,74.5,29.87,West,268,6.0,9.2,70,0.00,BKN,,0.22,WeatherDisplay:10.37,2013-09-01 18:34:00,
2013-09-01 14:35:00,85.2,74.3,29.88,WNW,297,0.2,2.3,70,0.00,BKN,,0.22,WeatherDisplay:10.37,2013-09-01 18:35:00,
2013-09-01 14:37:00,85.3,75.2,29.87,WNW,297,0.0,0.0,72,0.00,BKN,,0.22,WeatherDisplay:10.37,2013-09-01 18:37:00,
2013-09-01 14:38:00,85.3,75.7,29.87,WSW,255,0.4,4.0,73,0.00,BKN,,0.22,WeatherDisplay:10.37,2013-09-01 18:38:00,
2013-09-01 14:39:00,85.3,74.8,29.87,SSW,195,2.2,5.8,71,0.00,BKN,,0.22,WeatherDisplay:10.37,2013-09-01 18:39:00,
2013-09-01 14:40:00,85.4,75.3,29.87,SW,235,1.7,5.8,72,0.00,BKN,,0.22,WeatherDisplay:10.37,2013-09-01 18:40:00,
2013-09-01 14:41:00,85.4,74.9,29.87,WSW,255,2.7,4.6,71,0.00,BKN,,0.22,WeatherDisplay:10.37,2013-09-01 18:41:00,
2013-09-01 14:43:00,85.4,74.9,29.87,West,275,3.6,6.9,71,0.00,BKN,,0.22,WeatherDisplay:10.37,2013-09-01 18:43:00,
2013-09-01 14:44:00,85.3,75.2,29.87,SW,233,3.4,6.9,72,0.00,BKN,,0.22,WeatherDisplay:10.37,2013-09-01 18:44:00,
2013-09-01 14:45:00,85.3,75.2,29.87,SW,236,3.0,5.8,72,0.00,BKN,,0.22,WeatherDisplay:10.37,2013-09-01 18:45:00,
2013-09-01 14:46:00,85.2,75.1,29.87,West,271,1.3,3.5,72,0.00,BKN,,0.22,WeatherDisplay:10.37,2013-09-01 18:46:00,
2013-09-01 14:48:00,85.6,76.4,29.87,West,263,1.8,5.8,74,0.00,BKN,,0.22,WeatherDisplay:10.37,2013-09-01 18:48:00,
2013-09-01 14:49:00,86.1,76.4,29.87,WSW,242,0.3,5.8,73,0.00,BKN,,0.22,WeatherDisplay:10.37,2013-09-01 18:49:00,
2013-09-01 14:50:00,86.3,76.2,29.87,SW,233,0.8,7.0,72,0.00,BKN,,0.22,WeatherDisplay:10.37,2013-09-01 18:50:00,
2013-09-01 14:51:00,86.6,75.6,29.87,SW,223,3.2,8.1,70,0.00,BKN,,0.22,WeatherDisplay:10.37,2013-09-01 18:51:00,
2013-09-01 14:53:00,86.9,75.9,29.87,SW,233,5.7,11.5,70,0.00,BKN,,0.22,WeatherDisplay:10.37,2013-09-01 18:53:00,
2013-09-01 14:54:00,87.1,75.3,29.87,WSW,237,6.1,9.2,68,0.00,BKN,,0.22,WeatherDisplay:10.37,2013-09-01 18:54:00,
2013-09-01 14:55:00,87.0,76.0,29.87,WSW,237,1.2,6.9,70,0.00,BKN,,0.22,WeatherDisplay:10.37,2013-09-01 18:55:00,
2013-09-01 14:56:00,86.9,75.9,29.87,SW,225,2.6,5.8,70,0.00,BKN,,0.22,WeatherDisplay:10.37,2013-09-01 18:56:00,
2013-09-01 14:58:00,86.7,75.3,29.87,WSW,252,6.3,8.1,69,0.00,BKN,,0.22,WeatherDisplay:10.37,2013-09-01 18:58:00,
2013-09-01 15:00:00,86.3,75.4,29.87,WSW,252,2.1,6.9,70,0.00,BKN,,0.22,WeatherDisplay:10.37,2013-09-01 19:00:00,
2013-09-01 15:02:00,86.1,75.2,29.86,WSW,249,4.9,9.2,70,0.00,BKN,,0.22,WeatherDisplay:10.37,2013-09-01 19:02:00,
2013-09-01 15:03:00,85.8,74.9,29.86,WSW,241,6.2,9.2,70,0.00,BKN,,0.22,WeatherDisplay:10.37,2013-09-01 19:03:00,
2013-09-01 15:05:00,85.6,74.7,29.86,WSW,246,4.7,9.2,70,0.00,BKN,,0.22,WeatherDisplay:10.37,2013-09-01 19:05:00,
2013-09-01 15:07:00,85.5,74.6,29.86,WSW,241,1.3,5.8,70,0.00,BKN,,0.22,WeatherDisplay:10.37,2013-09-01 19:07:00,
2013-09-01 15:08:00,85.5,75.0,29.86,SW,227,0.8,3.5,71,0.00,BKN,,0.22,WeatherDisplay:10.37,2013-09-01 19:08:00,
2013-09-01 15:09:00,85.6,75.1,29.86,SW,215,0.1,3.5,71,0.00,BKN,,0.22,WeatherDisplay:10.37,2013-09-01 19:09:00,
2013-09-01 15:10:00,85.8,76.1,29.86,WSW,238,1.8,4.0,73,0.00,BKN,,0.22,WeatherDisplay:10.37,2013-09-01 19:10:00,
2013-09-01 15:12:00,86.0,75.1,29.86,WSW,247,0.5,3.5,70,0.00,BKN,,0.22,WeatherDisplay:10.37,2013-09-01 19:12:00,
2013-09-01 15:13:00,86.5,76.4,29.86,WSW,247,0.0,1.1,72,0.00,BKN,,0.22,WeatherDisplay:10.37,2013-09-01 19:13:00,
2013-09-01 15:15:00,86.8,73.6,29.86,WNW,293,5.8,8.1,65,0.00,BKN,,0.22,WeatherDisplay:10.37,2013-09-01 19:15:00,
2013-09-01 15:16:00,86.9,75.5,29.86,West,268,1.5,10.4,69,0.00,BKN,,0.22,WeatherDisplay:10.37,2013-09-01 19:16:00,
2013-09-01 15:17:00,86.9,75.1,29.86,South,189,0.1,2.3,68,0.00,BKN,,0.22,WeatherDisplay:10.37,2013-09-01 19:17:00,
2013-09-01 15:18:00,87.0,75.6,29.86,SSW,201,0.2,3.0,69,0.00,BKN,,0.22,WeatherDisplay:10.37,2013-09-01 19:18:00,
2013-09-01 15:20:00,87.3,75.4,29.86,SW,233,1.4,5.8,68,0.00,BKN,,0.22,WeatherDisplay:10.37,2013-09-01 19:20:00,
2013-09-01 15:21:00,87.3,75.4,29.86,West,261,2.4,7.0,68,0.00,BKN,,0.22,WeatherDisplay:10.37,2013-09-01 19:21:00,
2013-09-01 15:22:00,87.1,73.9,29.86,WNW,285,5.4,10.4,65,0.00,BKN,,0.22,WeatherDisplay:10.37,2013-09-01 19:22:00,
2013-09-01 15:23:00,87.1,75.3,29.86,SW,234,2.4,6.9,68,0.00,BKN,,0.22,WeatherDisplay:10.37,2013-09-01 19:23:00,
2013-09-01 15:25:00,87.1,74.4,29.86,WNW,288,6.8,8.1,66,0.00,BKN,,0.22,WeatherDisplay:10.37,2013-09-01 19:25:00,
2013-09-01 15:26:00,87.1,74.8,29.86,West,275,5.0,10.4,67,0.00,BKN,,0.22,WeatherDisplay:10.37,2013-09-01 19:26:00,
2013-09-01 15:28:00,87.0,73.8,29.85,West,270,5.9,8.1,65,0.00,BKN,,0.22,WeatherDisplay:10.37,2013-09-01 19:28:00,
2013-09-01 15:29:00,87.1,74.8,29.86,SW,223,3.3,6.9,67,0.00,BKN,,0.22,WeatherDisplay:10.37,2013-09-01 19:29:00,
2013-09-01 15:31:00,87.5,75.6,29.85,SW,221,4.3,6.0,68,0.00,BKN,,0.22,WeatherDisplay:10.37,2013-09-01 19:31:00,
2013-09-01 15:33:00,87.6,74.4,29.86,West,261,6.7,11.5,65,0.00,BKN,,0.22,WeatherDisplay:10.37,2013-09-01 19:33:00,
2013-09-01 15:34:00,87.6,75.7,29.85,WSW,237,3.7,9.2,68,0.00,BKN,,0.22,WeatherDisplay:10.37,2013-09-01 19:34:00,
2013-09-01 15:35:00,87.6,74.8,29.85,WSW,237,1.5,5.8,66,0.00,BKN,,0.22,WeatherDisplay:10.37,2013-09-01 19:35:00,
2013-09-01 15:36:00,87.7,75.4,29.85,SW,226,2.4,5.8,67,0.00,BKN,,0.22,WeatherDisplay:10.37,2013-09-01 19:36:00,
2013-09-01 15:38:00,88.0,76.5,29.85,West,271,0.6,5.0,69,0.00,BKN,,0.22,WeatherDisplay:10.37,2013-09-01 19:38:00,
2013-09-01 15:39:00,88.1,74.8,29.85,West,262,2.1,4.6,65,0.00,BKN,,0.22,WeatherDisplay:10.37,2013-09-01 19:39:00,
2013-09-01 15:40:00,88.1,75.3,29.85,SW,223,1.9,5.0,66,0.00,BKN,,0.22,WeatherDisplay:10.37,2013-09-01 19:40:00,
2013-09-01 15:41:00,88.2,76.3,29.85,South,189,2.8,8.0,68,0.00,BKN,,0.22,WeatherDisplay:10.37,2013-09-01 19:41:00,
2013-09-01 15:44:00,88.3,76.8,29.85,SSW,208,1.1,1.1,69,0.00,BKN,,0.22,WeatherDisplay:10.37,2013-09-01 19:44:00,
2013-09-01 15:45:00,88.3,76.8,29.85,South,191,1.7,4.6,69,0.00,BKN,,0.22,WeatherDisplay:10.37,2013-09-01 19:45:00,
2013-09-01 15:46:00,88.5,76.6,29.85,WSW,243,5.9,8.1,68,0.00,BKN,,0.22,WeatherDisplay:10.37,2013-09-01 19:46:00,
2013-09-01 15:47:00,88.6,75.8,29.85,NW,310,3.5,8.1,66,0.00,BKN,,0.22,WeatherDisplay:10.37,2013-09-01 19:47:00,
2013-09-01 15:49:00,88.6,74.9,29.85,WNW,283,2.1,5.8,64,0.00,BKN,,0.22,WeatherDisplay:10.37,2013-09-01 19:49:00,
2013-09-01 15:51:00,88.5,74.8,29.85,West,271,5.1,9.2,64,0.00,BKN,,0.22,WeatherDisplay:10.37,2013-09-01 19:51:00,
2013-09-01 15:53:00,88.4,75.1,29.85,WNW,285,4.0,6.9,65,0.00,BKN,,0.22,WeatherDisplay:10.37,2013-09-01 19:53:00,
2013-09-01 15:54:00,88.3,75.5,29.85,WNW,295,3.5,6.0,66,0.00,BKN,,0.22,WeatherDisplay:10.37,2013-09-01 19:54:00,
2013-09-01 15:56:00,88.1,75.3,29.85,West,267,4.6,6.9,66,0.00,BKN,,0.22,WeatherDisplay:10.37,2013-09-01 19:56:00,
2013-09-01 15:57:00,88.1,75.3,29.85,West,274,4.4,6.9,66,0.00,BKN,,0.22,WeatherDisplay:10.37,2013-09-01 19:57:00,
2013-09-01 15:58:00,88.0,74.8,29.85,West,271,5.9,8.1,65,0.00,BKN,,0.22,WeatherDisplay:10.37,2013-09-01 19:58:00,
2013-09-01 15:59:00,87.9,74.7,29.85,SW,224,0.6,8.1,65,0.00,BKN,,0.22,WeatherDisplay:10.37,2013-09-01 19:59:00,
2013-09-01 16:01:00,88.2,76.7,29.84,SW,229,0.0,0.0,69,0.00,BKN,,0.22,WeatherDisplay:10.37,2013-09-01 20:01:00,
2013-09-01 16:02:00,88.3,76.4,29.84,SW,230,0.1,1.1,68,0.00,BKN,,0.22,WeatherDisplay:10.37,2013-09-01 20:02:00,
2013-09-01 16:03:00,88.3,75.5,29.84,WNW,296,2.5,8.1,66,0.00,BKN,,0.22,WeatherDisplay:10.37,2013-09-01 20:03:00,
2013-09-01 16:05:00,88.3,74.6,29.84,West,264,3.1,5.0,64,0.00,BKN,,0.22,WeatherDisplay:10.37,2013-09-01 20:05:00,
2013-09-01 16:06:00,88.4,76.0,29.84,SW,234,4.4,9.0,67,0.00,BKN,,0.22,WeatherDisplay:10.37,2013-09-01 20:06:00,
2013-09-01 16:07:00,88.5,76.1,29.84,WSW,246,7.9,11.5,67,0.00,BKN,,0.22,WeatherDisplay:10.37,2013-09-01 20:07:00,
2013-09-01 16:08:00,88.6,74.9,29.84,SW,216,6.9,10.4,64,0.00,BKN,,0.22,WeatherDisplay:10.37,2013-09-01 20:08:00,
2013-09-01 16:09:00,88.6,75.3,29.84,WSW,244,3.7,9.2,65,0.00,BKN,,0.22,WeatherDisplay:10.37,2013-09-01 20:09:00,
2013-09-01 16:10:00,88.7,75.9,29.84,SW,232,2.2,5.0,66,0.00,BKN,,0.22,WeatherDisplay:10.37,2013-09-01 20:10:00,
2013-09-01 16:12:00,89.0,76.6,29.84,West,271,3.7,6.9,67,0.00,BKN,,0.22,WeatherDisplay:10.37,2013-09-01 20:12:00,
2013-09-01 16:13:00,89.1,75.8,29.84,West,261,4.7,5.8,65,0.00,BKN,,0.22,WeatherDisplay:10.37,2013-09-01 20:13:00,
2013-09-01 16:14:00,89.1,74.9,29.84,SW,234,3.4,8.1,63,0.00,BKN,,0.22,WeatherDisplay:10.37,2013-09-01 20:14:00,
2013-09-01 16:15:00,89.1,74.9,29.84,SW,235,2.4,6.9,63,0.00,BKN,,0.22,WeatherDisplay:10.37,2013-09-01 20:15:00,
2013-09-01 16:17:00,89.1,75.3,29.84,North,356,2.6,5.8,64,0.00,BKN,,0.22,WeatherDisplay:10.37,2013-09-01 20:17:00,
2013-09-01 16:18:00,89.2,75.4,29.84,NNW,347,0.0,3.5,64,0.00,BKN,,0.22,WeatherDisplay:10.37,2013-09-01 20:18:00,
2013-09-01 16:20:00,89.3,76.4,29.84,NW,316,1.3,5.0,66,0.00,BKN,,0.22,WeatherDisplay:10.37,2013-09-01 20:20:00,
2013-09-01 16:22:00,89.0,74.8,29.84,WNW,296,5.0,8.1,63,0.00,BKN,,0.22,WeatherDisplay:10.37,2013-09-01 20:22:00,
2013-09-01 16:23:00,88.8,76.0,29.84,West,278,1.6,5.0,66,0.00,BKN,,0.22,WeatherDisplay:10.37,2013-09-01 20:23:00,
2013-09-01 16:25:00,88.6,75.3,29.84,WNW,302,1.5,5.8,65,0.00,BKN,,0.22,WeatherDisplay:10.37,2013-09-01 20:25:00,
2013-09-01 16:27:00,88.8,76.4,29.84,WSW,238,0.4,3.5,67,0.00,BKN,,0.22,WeatherDisplay:10.37,2013-09-01 20:27:00,
2013-09-01 16:28:00,88.8,76.4,29.84,SW,226,0.4,3.5,67,0.00,BKN,,0.22,WeatherDisplay:10.37,2013-09-01 20:28:00,
2013-09-01 16:29:00,88.9,76.5,29.84,West,260,4.3,8.1,67,0.00,BKN,,0.22,WeatherDisplay:10.37,2013-09-01 20:29:00,
2013-09-01 16:30:00,88.8,75.5,29.84,WSW,257,1.1,8.1,65,0.00,BKN,,0.22,WeatherDisplay:10.37,2013-09-01 20:30:00,
2013-09-01 16:33:00,88.5,75.7,29.83,WSW,250,7.9,11.5,66,0.00,BKN,,0.22,WeatherDisplay:10.37,2013-09-01 20:33:00,
2013-09-01 16:34:00,88.2,75.4,29.83,West,266,5.7,11.5,66,0.00,BKN,,0.22,WeatherDisplay:10.37,2013-09-01 20:34:00,
2013-09-01 16:35:00,88.0,74.3,29.83,West,260,3.0,8.1,64,0.00,BKN,,0.22,WeatherDisplay:10.37,2013-09-01 20:35:00,
2013-09-01 16:38:00,87.5,75.2,29.83,SW,216,0.8,5.8,67,0.00,BKN,,0.22,WeatherDisplay:10.37,2013-09-01 20:38:00,
2013-09-01 16:39:00,87.4,75.1,29.83,West,264,1.0,12.0,67,0.00,BKN,,0.22,WeatherDisplay:10.37,2013-09-01 20:39:00,
2013-09-01 16:40:00,87.2,74.9,29.83,West,261,3.3,5.0,67,0.00,BKN,,0.22,WeatherDisplay:10.37,2013-09-01 20:40:00,
2013-09-01 16:41:00,87.0,75.2,29.83,West,260,1.9,5.8,68,0.00,BKN,,0.22,WeatherDisplay:10.37,2013-09-01 20:41:00,
2013-09-01 16:43:00,86.8,74.5,29.83,West,262,2.8,8.1,67,0.00,BKN,,0.22,WeatherDisplay:10.37,2013-09-01 20:43:00,
2013-09-01 16:44:00,86.7,74.0,29.83,West,270,0.3,3.5,66,0.00,BKN,,0.22,WeatherDisplay:10.37,2013-09-01 20:44:00,
2013-09-01 16:45:00,86.7,74.9,29.83,WSW,243,0.3,1.0,68,0.00,BKN,,0.22,WeatherDisplay:10.37,2013-09-01 20:45:00,
2013-09-01 16:46:00,86.7,75.3,29.83,WSW,258,1.9,3.5,69,0.00,BKN,,0.22,WeatherDisplay:10.37,2013-09-01 20:46:00,
2013-09-01 16:48:00,86.7,74.9,29.83,West,261,1.0,3.5,68,0.00,BKN,,0.22,WeatherDisplay:10.37,2013-09-01 20:48:00,
2013-09-01 16:49:00,86.7,74.9,29.83,West,262,0.7,3.5,68,0.00,BKN,,0.22,WeatherDisplay:10.37,2013-09-01 20:49:00,
2013-09-01 16:50:00,86.7,75.7,29.83,South,173,1.8,5.8,70,0.00,BKN,,0.22,WeatherDisplay:10.37,2013-09-01 20:50:00,
2013-09-01 16:51:00,86.7,76.2,29.84,SSE,162,0.1,3.5,71,0.00,BKN,,0.22,WeatherDisplay:10.37,2013-09-01 20:51:00,
2013-09-01 16:53:00,86.6,76.1,29.84,SSW,209,1.6,3.5,71,0.00,BKN,,0.22,WeatherDisplay:10.37,2013-09-01 20:53:00,
2013-09-01 16:54:00,86.6,76.1,29.84,SSW,209,0.5,3.5,71,0.00,BKN,,0.22,WeatherDisplay:10.37,2013-09-01 20:54:00,
2013-09-01 16:56:00,86.5,76.4,29.84,SSW,202,1.0,4.6,72,0.00,BKN,,0.22,WeatherDisplay:10.37,2013-09-01 20:56:00,
2013-09-01 16:57:00,86.4,76.3,29.84,SSW,202,1.4,3.0,72,0.00,BKN,,0.22,WeatherDisplay:10.37,2013-09-01 20:57:00,
2013-09-01 16:58:00,86.4,76.3,29.84,SSW,202,0.7,3.5,72,0.00,BKN,,0.22,WeatherDisplay:10.37,2013-09-01 20:58:00,
2013-09-01 16:59:00,86.3,76.2,29.84,SSW,202,0.0,0.0,72,0.00,BKN,,0.22,WeatherDisplay:10.37,2013-09-01 20:59:00,
2013-09-01 17:01:00,86.1,76.4,29.84,SSW,202,0.0,0.0,73,0.00,BKN,,0.22,WeatherDisplay:10.37,2013-09-01 21:01:00,
2013-09-01 17:02:00,86.0,76.7,29.84,SSW,202,0.0,0.0,74,0.00,BKN,,0.22,WeatherDisplay:10.37,2013-09-01 21:02:00,
2013-09-01 17:04:00,85.9,76.6,29.84,SSW,202,0.0,0.0,74,0.00,BKN,,0.22,WeatherDisplay:10.37,2013-09-01 21:04:00,
2013-09-01 17:06:00,85.8,76.5,29.84,SSW,211,0.0,0.0,74,0.00,BKN,,0.22,WeatherDisplay:10.37,2013-09-01 21:06:00,
2013-09-01 17:08:00,85.8,76.5,29.84,SSW,203,2.3,3.5,74,0.00,BKN,,0.22,WeatherDisplay:10.37,2013-09-01 21:08:00,
2013-09-01 17:09:00,85.8,76.1,29.84,SSW,199,2.8,4.6,73,0.00,BKN,,0.22,WeatherDisplay:10.37,2013-09-01 21:09:00,
2013-09-01 17:11:00,85.9,76.6,29.84,SSW,199,0.0,0.0,74,0.00,BKN,,0.22,WeatherDisplay:10.37,2013-09-01 21:11:00,
2013-09-01 17:12:00,85.9,77.1,29.85,SSW,198,0.0,0.0,75,0.00,BKN,,0.22,WeatherDisplay:10.37,2013-09-01 21:12:00,
2013-09-01 17:13:00,86.0,77.1,29.85,SSW,199,0.4,2.3,75,0.00,BKN,,0.22,WeatherDisplay:10.37,2013-09-01 21:13:00,
2013-09-01 17:14:00,85.9,76.6,29.85,South,189,1.3,3.0,74,0.00,BKN,,0.22,WeatherDisplay:10.37,2013-09-01 21:14:00,
2013-09-01 17:16:00,85.8,76.1,29.85,South,184,4.2,8.1,73,0.00,BKN,,0.22,WeatherDisplay:10.37,2013-09-01 21:16:00,
2013-09-01 17:17:00,85.7,75.6,29.85,SSW,198,8.4,11.5,72,0.00,BKN,,0.22,WeatherDisplay:10.37,2013-09-01 21:17:00,
2013-09-01 17:19:00,85.3,75.2,29.85,SSW,213,2.9,13.8,72,0.00,BKN,,0.22,WeatherDisplay:10.37,2013-09-01 21:19:00,
2013-09-01 17:21:00,85.1,75.5,29.85,South,188,6.6,13.8,73,0.00,BKN,,0.22,WeatherDisplay:10.37,2013-09-01 21:21:00,
2013-09-01 17:22:00,84.9,74.9,29.85,SSW,209,6.6,10.4,72,0.00,BKN,,0.22,WeatherDisplay:10.37,2013-09-01 21:22:00,
2013-09-01 17:24:00,84.4,74.4,29.85,SW,230,4.4,10.4,72,0.00,BKN,,0.22,WeatherDisplay:10.37,2013-09-01 21:24:00,
2013-09-01 17:26:00,84.2,74.2,29.85,South,188,6.7,11.5,72,0.00,BKN,,0.22,WeatherDisplay:10.37,2013-09-01 21:26:00,
2013-09-01 17:28:00,83.9,73.5,29.85,South,188,4.8,9.0,71,0.00,BKN,,0.22,WeatherDisplay:10.37,2013-09-01 21:28:00,
2013-09-01 17:29:00,83.8,73.8,29.85,SSW,200,10.0,13.8,72,0.00,BKN,,0.22,WeatherDisplay:10.37,2013-09-01 21:29:00,
2013-09-01 17:30:00,83.7,73.7,29.85,SSW,196,5.4,12.7,72,0.00,BKN,,0.22,WeatherDisplay:10.37,2013-09-01 21:30:00,
2013-09-01 17:31:00,83.6,73.2,29.85,SSW,194,7.7,11.5,71,0.00,BKN,,0.22,WeatherDisplay:10.37,2013-09-01 21:31:00,
2013-09-01 17:32:00,83.6,73.2,29.85,SSW,203,7.7,11.5,71,0.00,BKN,,0.22,WeatherDisplay:10.37,2013-09-01 21:32:00,
2013-09-01 17:34:00,83.5,73.5,29.85,SSW,206,1.4,4.0,72,0.00,BKN,,0.22,WeatherDisplay:10.37,2013-09-01 21:34:00,
2013-09-01 17:35:00,83.5,73.5,29.85,SSW,204,1.7,5.8,72,0.00,BKN,,0.22,WeatherDisplay:10.37,2013-09-01 21:35:00,
2013-09-01 17:36:00,83.5,73.1,29.85,South,187,1.1,5.8,71,0.00,BKN,,0.22,WeatherDisplay:10.37,2013-09-01 21:36:00,
2013-09-01 17:38:00,83.5,73.5,29.85,South,184,3.5,5.0,72,0.00,BKN,,0.22,WeatherDisplay:10.37,2013-09-01 21:38:00,
2013-09-01 17:39:00,83.5,73.5,29.85,SSW,196,5.9,9.2,72,0.00,BKN,,0.22,WeatherDisplay:10.37,2013-09-01 21:39:00,
2013-09-01 17:40:00,83.4,73.4,29.85,South,187,4.8,8.1,72,0.00,BKN,,0.22,WeatherDisplay:10.37,2013-09-01 21:40:00,
2013-09-01 17:41:00,83.4,73.4,29.85,SW,218,0.6,5.0,72,0.00,BKN,,0.22,WeatherDisplay:10.37,2013-09-01 21:41:00,
2013-09-01 17:43:00,83.4,73.0,29.85,WSW,246,2.5,4.6,71,0.00,BKN,,0.22,WeatherDisplay:10.37,2013-09-01 21:43:00,
2013-09-01 17:45:00,83.3,73.3,29.85,WSW,244,0.8,3.5,72,0.00,BKN,,0.22,WeatherDisplay:10.37,2013-09-01 21:45:00,
2013-09-01 17:46:00,83.3,73.3,29.85,WSW,239,2.5,4.0,72,0.00,BKN,,0.22,WeatherDisplay:10.37,2013-09-01 21:46:00,
2013-09-01 17:49:00,83.3,72.9,29.85,SW,231,4.1,6.9,71,0.00,BKN,,0.22,WeatherDisplay:10.37,2013-09-01 21:49:00,
2013-09-01 17:50:00,83.4,73.4,29.85,SW,225,3.2,5.8,72,0.00,BKN,,0.22,WeatherDisplay:10.37,2013-09-01 21:50:00,
2013-09-01 17:51:00,83.5,73.5,29.85,SSW,213,2.2,4.6,72,0.00,BKN,,0.22,WeatherDisplay:10.37,2013-09-01 21:51:00,
2013-09-01 17:54:00,84.3,73.9,29.85,SW,215,6.1,6.9,71,0.00,BKN,,0.22,WeatherDisplay:10.37,2013-09-01 21:54:00,
2013-09-01 17:55:00,84.4,73.5,29.85,SW,231,2.0,8.1,70,0.00,BKN,,0.22,WeatherDisplay:10.37,2013-09-01 21:55:00,
2013-09-01 17:56:00,84.5,73.6,29.85,WSW,256,3.6,6.0,70,0.00,BKN,,0.22,WeatherDisplay:10.37,2013-09-01 21:56:00,
2013-09-01 18:00:00,84.7,73.8,29.85,SSW,210,0.4,2.3,70,0.00,BKN,,0.22,WeatherDisplay:10.37,2013-09-01 22:00:00,
2013-09-01 18:01:00,84.8,74.3,29.85,SW,222,0.0,0.0,71,0.00,BKN,,0.22,WeatherDisplay:10.37,2013-09-01 22:01:00,
2013-09-01 18:02:00,84.8,74.3,29.84,WSW,255,3.3,5.8,71,0.00,BKN,,0.22,WeatherDisplay:10.37,2013-09-01 22:02:00,
2013-09-01 18:05:00,84.7,73.4,29.85,SW,235,3.7,5.8,69,0.00,BKN,,0.22,WeatherDisplay:10.37,2013-09-01 22:05:00,
2013-09-01 18:06:00,84.7,73.8,29.85,West,264,3.2,5.8,70,0.00,BKN,,0.22,WeatherDisplay:10.37,2013-09-01 22:06:00,
2013-09-01 18:07:00,84.8,73.9,29.85,WSW,251,6.0,9.2,70,0.00,BKN,,0.22,WeatherDisplay:10.37,2013-09-01 22:07:00,
2013-09-01 18:09:00,84.7,73.0,29.85,WSW,250,5.8,10.4,68,0.00,BKN,,0.22,WeatherDisplay:10.37,2013-09-01 22:09:00,
2013-09-01 18:10:00,84.7,73.4,29.85,WSW,252,0.7,6.9,69,0.00,BKN,,0.22,WeatherDisplay:10.37,2013-09-01 22:10:00,
2013-09-01 18:11:00,84.8,73.5,29.85,WSW,250,4.2,8.0,69,0.00,BKN,,0.22,WeatherDisplay:10.37,2013-09-01 22:11:00,
2013-09-01 18:12:00,84.7,73.0,29.85,West,262,5.4,8.1,68,0.00,BKN,,0.22,WeatherDisplay:10.37,2013-09-01 22:12:00,
2013-09-01 18:14:00,84.5,72.8,29.85,WSW,247,6.5,8.1,68,0.00,BKN,,0.22,WeatherDisplay:10.37,2013-09-01 22:14:00,
2013-09-01 18:15:00,84.3,73.0,29.85,West,263,1.7,6.9,69,0.00,BKN,,0.22,WeatherDisplay:10.37,2013-09-01 22:15:00,
2013-09-01 18:17:00,84.2,72.9,29.85,West,272,1.2,5.8,69,0.00,BKN,,0.22,WeatherDisplay:10.37,2013-09-01 22:17:00,
2013-09-01 18:19:00,84.0,73.2,29.85,West,281,2.2,6.9,70,0.00,BKN,,0.22,WeatherDisplay:10.37,2013-09-01 22:19:00,
2013-09-01 18:21:00,83.9,72.6,29.85,West,267,5.1,9.2,69,0.00,BKN,,0.22,WeatherDisplay:10.37,2013-09-01 22:21:00,
2013-09-01 18:22:00,83.9,72.6,29.85,West,259,2.5,5.8,69,0.00,BKN,,0.22,WeatherDisplay:10.37,2013-09-01 22:22:00,
2013-09-01 18:23:00,83.9,73.1,29.85,West,260,0.0,3.5,70,0.00,BKN,,0.22,WeatherDisplay:10.37,2013-09-01 22:23:00,
2013-09-01 18:24:00,83.9,73.1,29.85,West,260,0.1,0.0,70,0.00,BKN,,0.22,WeatherDisplay:10.37,2013-09-01 22:24:00,
2013-09-01 18:26:00,84.0,73.6,29.85,SSW,199,0.1,1.1,71,0.00,BKN,,0.22,WeatherDisplay:10.37,2013-09-01 22:26:00,
2013-09-01 18:27:00,84.1,73.7,29.85,SSW,212,0.5,2.0,71,0.00,BKN,,0.22,WeatherDisplay:10.37,2013-09-01 22:27:00,
2013-09-01 18:29:00,84.2,73.8,29.85,SW,220,0.3,2.3,71,0.00,BKN,,0.22,WeatherDisplay:10.37,2013-09-01 22:29:00,
2013-09-01 18:31:00,84.1,73.3,29.85,WSW,246,2.2,5.8,70,0.00,BKN,,0.22,WeatherDisplay:10.37,2013-09-01 22:31:00,
2013-09-01 18:32:00,84.1,73.3,29.85,SW,224,2.9,5.8,70,0.00,BKN,,0.22,WeatherDisplay:10.37,2013-09-01 22:32:00,
2013-09-01 18:33:00,84.1,72.8,29.85,WNW,285,0.8,4.6,69,0.00,BKN,,0.22,WeatherDisplay:10.37,2013-09-01 22:33:00,
2013-09-01 18:34:00,84.1,73.3,29.85,WNW,286,0.8,3.5,70,0.00,BKN,,0.22,WeatherDisplay:10.37,2013-09-01 22:34:00,
2013-09-01 18:35:00,84.0,73.2,29.85,West,277,0.0,0.0,70,0.00,BKN,,0.22,WeatherDisplay:10.37,2013-09-01 22:35:00,
2013-09-01 18:36:00,84.0,73.6,29.85,West,276,0.0,0.0,71,0.00,BKN,,0.22,WeatherDisplay:10.37,2013-09-01 22:36:00,
2013-09-01 18:37:00,83.9,73.1,29.85,West,276,0.0,0.0,70,0.00,BKN,,0.22,WeatherDisplay:10.37,2013-09-01 22:37:00,
2013-09-01 18:38:00,83.9,73.1,29.85,West,276,0.0,0.0,70,0.00,BKN,,0.22,WeatherDisplay:10.37,2013-09-01 22:38:00,
2013-09-01 18:39:00,83.8,73.4,29.85,West,266,0.8,3.5,71,0.00,BKN,,0.22,WeatherDisplay:10.37,2013-09-01 22:39:00,
2013-09-01 18:41:00,83.7,73.3,29.85,West,277,1.3,3.5,71,0.00,BKN,,0.22,WeatherDisplay:10.37,2013-09-01 22:41:00,
2013-09-01 18:43:00,83.5,73.5,29.85,West,260,1.1,4.6,72,0.00,BKN,,0.22,WeatherDisplay:10.37,2013-09-01 22:43:00,
2013-09-01 18:44:00,83.3,73.3,29.85,West,260,0.6,1.1,72,0.00,BKN,,0.22,WeatherDisplay:10.37,2013-09-01 22:44:00,
2013-09-01 18:45:00,83.3,73.3,29.85,West,260,0.2,3.5,72,0.00,BKN,,0.22,WeatherDisplay:10.37,2013-09-01 22:45:00,
2013-09-01 18:46:00,83.2,73.2,29.85,West,260,0.2,2.3,72,0.00,BKN,,0.22,WeatherDisplay:10.37,2013-09-01 22:46:00,
2013-09-01 18:48:00,83.1,73.5,29.85,West,260,0.0,0.0,73,0.00,BKN,,0.22,WeatherDisplay:10.37,2013-09-01 22:48:00,
2013-09-01 18:50:00,83.2,74.0,29.85,West,260,0.0,0.0,74,0.00,BKN,,0.22,WeatherDisplay:10.37,2013-09-01 22:50:00,
2013-09-01 18:51:00,83.2,73.6,29.85,West,260,0.0,0.0,73,0.00,BKN,,0.22,WeatherDisplay:10.37,2013-09-01 22:51:00,
2013-09-01 18:53:00,83.2,73.6,29.85,West,260,0.0,0.0,73,0.00,BKN,,0.22,WeatherDisplay:10.37,2013-09-01 22:53:00,
2013-09-01 18:55:00,83.3,73.7,29.85,West,260,0.0,0.0,73,0.00,BKN,,0.22,WeatherDisplay:10.37,2013-09-01 22:55:00,
2013-09-01 18:57:00,83.4,74.6,29.85,West,260,0.0,0.0,75,0.00,BKN,,0.22,WeatherDisplay:10.37,2013-09-01 22:57:00,
2013-09-01 18:58:00,83.4,75.0,29.85,West,260,0.0,0.0,76,0.00,BKN,,0.22,WeatherDisplay:10.37,2013-09-01 22:58:00,
2013-09-01 19:00:00,83.4,75.4,29.85,West,260,0.0,0.0,77,0.00,BKN,,0.22,WeatherDisplay:10.37,2013-09-01 23:00:00,
2013-09-01 19:02:00,83.4,75.4,29.85,West,260,0.0,0.0,77,0.00,OVC,,0.22,WeatherDisplay:10.37,2013-09-01 23:02:00,
2013-09-01 19:03:00,83.5,75.5,29.85,West,260,0.0,0.0,77,0.00,OVC,,0.22,WeatherDisplay:10.37,2013-09-01 23:03:00,
2013-09-01 19:06:00,83.5,74.7,29.85,West,260,0.0,0.0,75,0.00,OVC,,0.22,WeatherDisplay:10.37,2013-09-01 23:06:00,
2013-09-01 19:07:00,83.4,75.0,29.85,West,260,0.0,0.0,76,0.00,OVC,,0.22,WeatherDisplay:10.37,2013-09-01 23:07:00,
2013-09-01 19:08:00,83.4,75.4,29.85,West,260,0.0,0.0,77,0.00,OVC,,0.22,WeatherDisplay:10.37,2013-09-01 23:08:00,
2013-09-01 19:11:00,83.4,75.0,29.85,West,260,0.0,0.0,76,0.00,OVC,,0.22,WeatherDisplay:10.37,2013-09-01 23:11:00,
2013-09-01 19:12:00,83.4,75.0,29.85,West,260,0.0,0.0,76,0.00,OVC,,0.22,WeatherDisplay:10.37,2013-09-01 23:12:00,
2013-09-01 19:13:00,83.4,75.0,29.85,West,260,0.0,0.0,76,0.00,OVC,,0.22,WeatherDisplay:10.37,2013-09-01 23:13:00,
2013-09-01 19:16:00,83.2,74.4,29.85,West,260,0.0,2.3,75,0.00,OVC,,0.22,WeatherDisplay:10.37,2013-09-01 23:16:00,
2013-09-01 19:17:00,83.1,74.7,29.85,West,260,0.0,0.0,76,0.00,OVC,,0.22,WeatherDisplay:10.37,2013-09-01 23:17:00,
2013-09-01 19:18:00,83.2,74.8,29.85,West,260,0.0,0.0,76,0.00,OVC,,0.22,WeatherDisplay:10.37,2013-09-01 23:18:00,
2013-09-01 19:22:00,83.3,75.3,29.85,West,260,0.0,0.0,77,0.00,OVC,,0.22,WeatherDisplay:10.37,2013-09-01 23:22:00,
2013-09-01 19:23:00,83.3,75.7,29.85,West,260,0.0,0.0,78,0.00,OVC,,0.22,WeatherDisplay:10.37,2013-09-01 23:23:00,
2013-09-01 19:24:00,83.3,75.7,29.85,West,260,0.0,0.0,78,0.00,OVC,,0.22,WeatherDisplay:10.37,2013-09-01 23:24:00,
2013-09-01 19:27:00,83.3,75.7,29.85,West,260,0.0,0.0,78,0.00,OVC,,0.22,WeatherDisplay:10.37,2013-09-01 23:27:00,
2013-09-01 19:28:00,83.2,76.0,29.85,West,260,0.0,0.0,79,0.00,OVC,,0.22,WeatherDisplay:10.37,2013-09-01 23:28:00,
2013-09-01 19:29:00,83.2,76.0,29.85,West,260,0.0,0.0,79,0.00,OVC,,0.22,WeatherDisplay:10.37,2013-09-01 23:29:00,
2013-09-01 19:32:00,83.1,76.3,29.85,West,260,0.0,0.0,80,0.00,OVC,,0.22,WeatherDisplay:10.37,2013-09-01 23:32:00,
2013-09-01 19:33:00,83.0,76.2,29.85,West,260,0.0,0.0,80,0.00,OVC,,0.22,WeatherDisplay:10.37,2013-09-01 23:33:00,
2013-09-01 19:34:00,83.0,76.2,29.85,West,260,0.0,0.0,80,0.00,OVC,,0.22,WeatherDisplay:10.37,2013-09-01 23:34:00,
2013-09-01 19:37:00,82.9,76.1,29.85,West,260,0.0,0.0,80,0.00,OVC,,0.22,WeatherDisplay:10.37,2013-09-01 23:37:00,
2013-09-01 19:38:00,82.8,76.4,29.85,West,260,0.0,0.0,81,0.00,OVC,,0.22,WeatherDisplay:10.37,2013-09-01 23:38:00,
2013-09-01 19:39:00,82.8,76.4,29.85,West,260,0.0,0.0,81,0.00,OVC,,0.22,WeatherDisplay:10.37,2013-09-01 23:39:00,
2013-09-01 19:43:00,82.7,75.9,29.85,West,260,0.0,0.0,80,0.00,OVC,,0.22,WeatherDisplay:10.37,2013-09-01 23:43:00,
2013-09-01 19:44:00,82.6,75.8,29.85,West,260,0.0,0.0,80,0.00,OVC,,0.22,WeatherDisplay:10.37,2013-09-01 23:44:00,
2013-09-01 19:45:00,82.5,75.7,29.85,West,260,0.0,0.0,80,0.00,OVC,,0.22,WeatherDisplay:10.37,2013-09-01 23:45:00,
2013-09-01 19:46:00,82.4,75.6,29.85,West,260,0.0,0.0,80,0.00,OVC,,0.22,WeatherDisplay:10.37,2013-09-01 23:46:00,
2013-09-01 19:49:00,82.3,75.5,29.85,West,260,0.0,0.0,80,0.00,OVC,,0.22,WeatherDisplay:10.37,2013-09-01 23:49:00,
2013-09-01 19:50:00,82.3,75.5,29.85,West,260,0.0,0.0,80,0.00,OVC,,0.22,WeatherDisplay:10.37,2013-09-01 23:50:00,
2013-09-01 19:51:00,82.1,75.3,29.85,West,260,0.0,0.0,80,0.00,OVC,,0.22,WeatherDisplay:10.37,2013-09-01 23:51:00,
2013-09-01 19:54:00,82.0,75.6,29.86,West,260,0.0,0.0,81,0.00,OVC,,0.22,WeatherDisplay:10.37,2013-09-01 23:54:00,
2013-09-01 19:55:00,82.0,75.2,29.86,West,260,0.0,0.0,80,0.00,OVC,,0.22,WeatherDisplay:10.37,2013-09-01 23:55:00,
2013-09-01 19:56:00,82.0,75.6,29.86,West,260,0.0,0.0,81,0.00,OVC,,0.22,WeatherDisplay:10.37,2013-09-01 23:56:00,
2013-09-01 19:57:00,82.0,75.2,29.86,West,260,0.0,0.0,80,0.00,OVC,,0.22,WeatherDisplay:10.37,2013-09-01 23:57:00,
2013-09-01 19:59:00,81.9,75.1,29.86,West,260,0.0,0.0,80,0.00,OVC,,0.22,WeatherDisplay:10.37,2013-09-01 23:59:00,
2013-09-01 20:00:00,81.9,75.1,29.86,West,260,0.0,0.0,80,0.00,OVC,,0.22,WeatherDisplay:10.37,2013-09-02 00:00:00,
2013-09-01 20:01:00,81.9,75.1,29.86,West,260,0.0,0.0,80,0.00,OVC,,0.22,WeatherDisplay:10.37,2013-09-02 00:01:00,
2013-09-01 20:02:00,81.8,75.0,29.86,West,260,0.0,0.0,80,0.00,OVC,,0.22,WeatherDisplay:10.37,2013-09-02 00:02:00,
2013-09-01 20:04:00,81.7,74.9,29.86,West,260,0.0,0.0,80,0.00,OVC,,0.22,WeatherDisplay:10.37,2013-09-02 00:04:00,
2013-09-01 20:05:00,81.6,75.2,29.86,West,260,0.0,0.0,81,0.00,OVC,,0.22,WeatherDisplay:10.37,2013-09-02 00:05:00,
2013-09-01 20:06:00,81.6,75.2,29.86,West,260,0.0,0.0,81,0.00,OVC,,0.22,WeatherDisplay:10.37,2013-09-02 00:06:00,
2013-09-01 20:08:00,81.6,75.6,29.86,West,260,0.0,0.0,82,0.00,OVC,,0.22,WeatherDisplay:10.37,2013-09-02 00:08:00,
2013-09-01 20:09:00,81.5,75.1,29.86,West,260,0.0,0.0,81,0.00,OVC,,0.22,WeatherDisplay:10.37,2013-09-02 00:09:00,
2013-09-01 20:10:00,81.5,75.5,29.86,West,260,0.0,0.0,82,0.00,OVC,,0.22,WeatherDisplay:10.37,2013-09-02 00:10:00,
2013-09-01 20:11:00,81.5,75.5,29.86,West,260,0.0,0.0,82,0.00,OVC,,0.22,WeatherDisplay:10.37,2013-09-02 00:11:00,
2013-09-01 20:12:00,81.4,75.4,29.86,West,260,0.0,0.0,82,0.00,OVC,,0.22,WeatherDisplay:10.37,2013-09-02 00:12:00,
2013-09-01 20:14:00,81.4,75.4,29.86,West,260,0.0,0.0,82,0.00,OVC,,0.22,WeatherDisplay:10.37,2013-09-02 00:14:00,
2013-09-01 20:15:00,81.3,75.3,29.86,West,260,0.0,0.0,82,0.00,OVC,,0.22,WeatherDisplay:10.37,2013-09-02 00:15:00,
2013-09-01 20:16:00,81.3,75.6,29.86,West,260,0.0,0.0,83,0.00,OVC,,0.22,WeatherDisplay:10.37,2013-09-02 00:16:00,
2013-09-01 20:17:00,81.3,75.6,29.86,West,260,0.0,0.0,83,0.00,OVC,,0.22,WeatherDisplay:10.37,2013-09-02 00:17:00,
2013-09-01 20:19:00,81.4,75.7,29.86,West,260,0.0,0.0,83,0.00,OVC,,0.22,WeatherDisplay:10.37,2013-09-02 00:19:00,
2013-09-01 20:20:00,81.3,75.6,29.85,West,260,0.0,0.0,83,0.00,OVC,,0.22,WeatherDisplay:10.37,2013-09-02 00:20:00,
2013-09-01 20:21:00,81.3,75.6,29.86,West,260,0.0,0.0,83,0.00,OVC,,0.22,WeatherDisplay:10.37,2013-09-02 00:21:00,
2013-09-01 20:22:00,81.3,75.6,29.86,West,260,0.0,0.0,83,0.00,OVC,,0.22,WeatherDisplay:10.37,2013-09-02 00:22:00,
2013-09-01 20:24:00,81.2,75.5,29.86,West,260,0.0,0.0,83,0.00,OVC,,0.22,WeatherDisplay:10.37,2013-09-02 00:24:00,
2013-09-01 20:25:00,81.1,75.4,29.86,West,260,0.0,0.0,83,0.00,OVC,,0.22,WeatherDisplay:10.37,2013-09-02 00:25:00,
2013-09-01 20:26:00,81.1,75.4,29.86,West,260,0.0,0.0,83,0.00,OVC,,0.22,WeatherDisplay:10.37,2013-09-02 00:26:00,
2013-09-01 20:27:00,81.0,75.3,29.86,West,260,0.0,0.0,83,0.00,OVC,,0.22,WeatherDisplay:10.37,2013-09-02 00:27:00,
2013-09-01 20:29:00,80.9,75.2,29.86,West,260,0.0,0.0,83,0.00,OVC,,0.22,WeatherDisplay:10.37,2013-09-02 00:29:00,
2013-09-01 20:30:00,80.8,75.5,29.86,West,260,0.0,0.0,84,0.00,OVC,,0.22,WeatherDisplay:10.37,2013-09-02 00:30:00,
2013-09-01 20:31:00,80.8,75.5,29.86,West,260,0.0,0.0,84,0.00,OVC,,0.22,WeatherDisplay:10.37,2013-09-02 00:31:00,
2013-09-01 20:33:00,80.7,75.4,29.86,West,260,0.0,0.0,84,0.00,OVC,,0.22,WeatherDisplay:10.37,2013-09-02 00:33:00,
2013-09-01 20:34:00,80.7,75.4,29.86,West,260,0.0,0.0,84,0.00,OVC,,0.22,WeatherDisplay:10.37,2013-09-02 00:34:00,
2013-09-01 20:35:00,80.7,75.4,29.86,West,260,0.0,0.0,84,0.00,OVC,,0.22,WeatherDisplay:10.37,2013-09-02 00:35:00,
2013-09-01 20:36:00,80.8,75.5,29.86,West,260,0.0,0.0,84,0.00,OVC,,0.22,WeatherDisplay:10.37,2013-09-02 00:36:00,
2013-09-01 20:38:00,80.8,75.5,29.86,West,260,0.0,0.0,84,0.00,OVC,,0.22,WeatherDisplay:10.37,2013-09-02 00:38:00,
2013-09-01 20:39:00,80.8,75.5,29.86,West,260,0.0,0.0,84,0.00,OVC,,0.22,WeatherDisplay:10.37,2013-09-02 00:39:00,
2013-09-01 20:40:00,80.8,75.5,29.86,West,260,0.0,0.0,84,0.00,OVC,,0.22,WeatherDisplay:10.37,2013-09-02 00:40:00,
2013-09-01 20:41:00,80.8,75.5,29.86,West,260,0.0,0.0,84,0.00,OVC,,0.22,WeatherDisplay:10.37,2013-09-02 00:41:00,
2013-09-01 20:43:00,80.9,75.6,29.86,West,260,0.0,0.0,84,0.00,OVC,,0.22,WeatherDisplay:10.37,2013-09-02 00:43:00,
2013-09-01 20:44:00,80.8,75.5,29.87,West,260,0.0,1.1,84,0.00,OVC,,0.22,WeatherDisplay:10.37,2013-09-02 00:44:00,
2013-09-01 20:45:00,80.8,75.5,29.87,West,260,0.0,0.0,84,0.00,OVC,,0.22,WeatherDisplay:10.37,2013-09-02 00:45:00,
2013-09-01 20:46:00,80.8,75.5,29.87,West,260,0.0,0.0,84,0.00,OVC,,0.22,WeatherDisplay:10.37,2013-09-02 00:46:00,
2013-09-01 20:49:00,80.8,75.5,29.87,West,260,0.0,0.0,84,0.00,OVC,,0.22,WeatherDisplay:10.37,2013-09-02 00:49:00,
2013-09-01 20:50:00,80.7,75.4,29.87,West,260,0.0,0.0,84,0.00,OVC,,0.22,WeatherDisplay:10.37,2013-09-02 00:50:00,
2013-09-01 20:51:00,80.7,75.4,29.87,West,260,0.0,0.0,84,0.00,OVC,,0.22,WeatherDisplay:10.37,2013-09-02 00:51:00,
2013-09-01 20:52:00,80.7,75.4,29.87,West,260,0.0,0.0,84,0.00,OVC,,0.22,WeatherDisplay:10.37,2013-09-02 00:52:00,
2013-09-01 20:55:00,80.7,75.4,29.87,West,260,0.0,0.0,84,0.00,OVC,,0.22,WeatherDisplay:10.37,2013-09-02 00:55:00,
2013-09-01 20:56:00,80.7,75.4,29.87,West,260,0.0,0.0,84,0.00,OVC,,0.22,WeatherDisplay:10.37,2013-09-02 00:56:00,
2013-09-01 20:57:00,80.7,75.4,29.87,West,260,0.0,0.0,84,0.00,OVC,,0.22,WeatherDisplay:10.37,2013-09-02 00:57:00,
2013-09-01 21:00:00,80.5,75.2,29.87,WSW,246,0.0,0.0,84,0.00,OVC,,0.22,WeatherDisplay:10.37,2013-09-02 01:00:00,
2013-09-01 21:01:00,80.5,75.2,29.87,WSW,246,0.0,0.0,84,0.00,OVC,,0.22,WeatherDisplay:10.37,2013-09-02 01:01:00,
2013-09-01 21:02:00,80.5,75.6,29.87,WSW,246,0.0,1.1,85,0.00,OVC,,0.22,WeatherDisplay:10.37,2013-09-02 01:02:00,
2013-09-01 21:04:00,80.4,75.5,29.87,WSW,246,0.0,0.0,85,0.00,OVC,,0.22,WeatherDisplay:10.37,2013-09-02 01:04:00,
2013-09-01 21:05:00,80.4,75.5,29.87,WSW,246,0.0,0.0,85,0.00,OVC,,0.22,WeatherDisplay:10.37,2013-09-02 01:05:00,
2013-09-01 21:06:00,80.4,75.5,29.88,WSW,246,0.0,0.0,85,0.00,OVC,,0.22,WeatherDisplay:10.37,2013-09-02 01:06:00,
2013-09-01 21:07:00,80.4,75.5,29.87,WSW,246,0.0,0.0,85,0.00,OVC,,0.22,WeatherDisplay:10.37,2013-09-02 01:07:00,
2013-09-01 21:09:00,80.4,75.5,29.88,WSW,246,0.0,0.0,85,0.00,OVC,,0.22,WeatherDisplay:10.37,2013-09-02 01:09:00,
2013-09-01 21:10:00,80.4,75.5,29.88,WSW,246,0.0,0.0,85,0.00,OVC,,0.22,WeatherDisplay:10.37,2013-09-02 01:10:00,
2013-09-01 21:12:00,80.4,75.5,29.88,WSW,246,0.0,1.1,85,0.00,OVC,,0.22,WeatherDisplay:10.37,2013-09-02 01:12:00,
2013-09-01 21:14:00,80.4,75.5,29.87,WSW,238,0.0,1.1,85,0.00,OVC,,0.22,WeatherDisplay:10.37,2013-09-02 01:14:00,
2013-09-01 21:15:00,80.3,75.4,29.87,SW,222,0.0,3.5,85,0.00,OVC,,0.22,WeatherDisplay:10.37,2013-09-02 01:15:00,
2013-09-01 21:17:00,80.3,75.4,29.87,SW,222,0.0,0.0,85,0.00,OVC,,0.22,WeatherDisplay:10.37,2013-09-02 01:17:00,
2013-09-01 21:19:00,80.3,75.4,29.88,SW,222,0.0,0.0,85,0.00,OVC,,0.22,WeatherDisplay:10.37,2013-09-02 01:19:00,
2013-09-01 21:20:00,80.3,75.4,29.87,SW,222,0.0,0.0,85,0.00,OVC,,0.22,WeatherDisplay:10.37,2013-09-02 01:20:00,
2013-09-01 21:22:00,80.1,75.2,29.88,SW,222,0.0,0.0,85,0.00,OVC,,0.22,WeatherDisplay:10.37,2013-09-02 01:22:00,
2013-09-01 21:25:00,80.0,75.1,29.88,SW,222,0.0,0.0,85,0.00,OVC,,0.22,WeatherDisplay:10.37,2013-09-02 01:25:00,
2013-09-01 21:26:00,80.0,75.1,29.88,SW,222,0.0,0.0,85,0.00,OVC,,0.22,WeatherDisplay:10.37,2013-09-02 01:26:00,
2013-09-01 21:27:00,79.9,75.0,29.88,SW,222,0.0,0.0,85,0.00,OVC,,0.22,WeatherDisplay:10.37,2013-09-02 01:27:00,
2013-09-01 21:30:00,79.9,75.0,29.88,SW,222,0.0,0.0,85,0.00,OVC,,0.22,WeatherDisplay:10.37,2013-09-02 01:30:00,
2013-09-01 21:31:00,79.9,75.0,29.88,SW,222,0.0,0.0,85,0.00,OVC,,0.22,WeatherDisplay:10.37,2013-09-02 01:31:00,
2013-09-01 21:32:00,79.9,75.0,29.88,SW,222,0.1,1.1,85,0.00,OVC,,0.22,WeatherDisplay:10.37,2013-09-02 01:32:00,
2013-09-01 21:33:00,79.8,74.9,29.88,SW,222,0.0,0.0,85,0.00,OVC,,0.22,WeatherDisplay:10.37,2013-09-02 01:33:00,
2013-09-01 21:36:00,79.8,74.9,29.88,SW,222,0.0,0.0,85,0.00,OVC,,0.22,WeatherDisplay:10.37,2013-09-02 01:36:00,
2013-09-01 21:37:00,79.7,74.8,29.88,SW,222,0.0,0.0,85,0.00,OVC,,0.22,WeatherDisplay:10.37,2013-09-02 01:37:00,
2013-09-01 21:38:00,79.7,74.8,29.88,SW,222,0.0,0.0,85,0.00,OVC,,0.22,WeatherDisplay:10.37,2013-09-02 01:38:00,
2013-09-01 21:41:00,79.6,74.7,29.88,SW,222,0.0,0.0,85,0.00,OVC,,0.22,WeatherDisplay:10.37,2013-09-02 01:41:00,
2013-09-01 21:42:00,79.6,74.7,29.88,SW,222,0.0,0.0,85,0.00,OVC,,0.22,WeatherDisplay:10.37,2013-09-02 01:42:00,
2013-09-01 21:43:00,79.5,74.6,29.89,SW,222,0.0,0.0,85,0.00,OVC,,0.22,WeatherDisplay:10.37,2013-09-02 01:43:00,
2013-09-01 21:44:00,79.5,74.6,29.89,SW,222,0.0,0.0,85,0.00,OVC,,0.22,WeatherDisplay:10.37,2013-09-02 01:44:00,
2013-09-01 21:46:00,79.4,74.5,29.89,SW,222,0.0,0.0,85,0.00,OVC,,0.22,WeatherDisplay:10.37,2013-09-02 01:46:00,
2013-09-01 21:47:00,79.4,74.8,29.89,SW,222,0.0,0.0,86,0.00,OVC,,0.22,WeatherDisplay:10.37,2013-09-02 01:47:00,
2013-09-01 21:48:00,79.4,74.8,29.89,SW,222,0.0,0.0,86,0.00,OVC,,0.22,WeatherDisplay:10.37,2013-09-02 01:48:00,
2013-09-01 21:49:00,79.5,74.9,29.89,SW,222,0.0,0.0,86,0.00,OVC,,0.22,WeatherDisplay:10.37,2013-09-02 01:49:00,
2013-09-01 21:50:00,79.5,74.9,29.89,SW,222,0.0,0.0,86,0.00,OVC,,0.22,WeatherDisplay:10.37,2013-09-02 01:50:00,
2013-09-01 21:51:00,79.5,74.9,29.89,SW,222,0.0,0.0,86,0.00,OVC,,0.22,WeatherDisplay:10.37,2013-09-02 01:51:00,
2013-09-01 21:52:00,79.5,74.9,29.89,SW,222,0.0,0.0,86,0.00,OVC,,0.22,WeatherDisplay:10.37,2013-09-02 01:52:00,
2013-09-01 21:53:00,79.5,74.9,29.89,SW,222,0.0,1.1,86,0.00,OVC,,0.22,WeatherDisplay:10.37,2013-09-02 01:53:00,
2013-09-01 21:54:00,79.5,74.9,29.89,SW,222,0.0,0.0,86,0.00,OVC,,0.22,WeatherDisplay:10.37,2013-09-02 01:54:00,
2013-09-01 21:55:00,79.5,74.9,29.89,SW,222,0.0,0.0,86,0.00,OVC,,0.22,WeatherDisplay:10.37,2013-09-02 01:55:00,
2013-09-01 21:56:00,79.6,75.0,29.89,SW,222,0.0,0.0,86,0.00,OVC,,0.22,WeatherDisplay:10.37,2013-09-02 01:56:00,
2013-09-01 21:57:00,79.5,74.6,29.89,SW,222,0.0,0.0,85,0.00,OVC,,0.22,WeatherDisplay:10.37,2013-09-02 01:57:00,
2013-09-01 21:58:00,79.5,74.6,29.89,SW,222,0.0,0.0,85,0.00,OVC,,0.22,WeatherDisplay:10.37,2013-09-02 01:58:00,
2013-09-01 21:59:00,79.5,74.6,29.89,SW,222,0.0,0.0,85,0.00,OVC,,0.22,WeatherDisplay:10.37,2013-09-02 01:59:00,
2013-09-01 22:01:00,79.5,74.9,29.89,SW,222,0.0,0.0,86,0.00,FEW,,0.22,WeatherDisplay:10.37,2013-09-02 02:01:00,
2013-09-01 22:02:00,79.5,74.9,29.89,SW,222,0.0,1.1,86,0.00,FEW,,0.22,WeatherDisplay:10.37,2013-09-02 02:02:00,
2013-09-01 22:04:00,79.5,74.6,29.89,SW,222,0.0,0.0,85,0.00,FEW,,0.22,WeatherDisplay:10.37,2013-09-02 02:04:00,
2013-09-01 22:06:00,79.6,74.7,29.89,SW,222,0.0,0.0,85,0.00,FEW,,0.22,WeatherDisplay:10.37,2013-09-02 02:06:00,
2013-09-01 22:07:00,79.5,74.6,29.89,SW,222,0.0,0.0,85,0.00,FEW,,0.22,WeatherDisplay:10.37,2013-09-02 02:07:00,
2013-09-01 22:09:00,79.5,74.6,29.89,SW,222,0.0,0.0,85,0.00,FEW,,0.22,WeatherDisplay:10.37,2013-09-02 02:09:00,
2013-09-01 22:11:00,79.4,74.5,29.89,SW,222,0.0,0.0,85,0.00,FEW,,0.22,WeatherDisplay:10.37,2013-09-02 02:11:00,
2013-09-01 22:12:00,79.4,74.5,29.89,SW,222,0.0,1.1,85,0.00,FEW,,0.22,WeatherDisplay:10.37,2013-09-02 02:12:00,
2013-09-01 22:13:00,79.3,74.4,29.89,SW,222,0.0,0.0,85,0.00,FEW,,0.22,WeatherDisplay:10.37,2013-09-02 02:13:00,
2013-09-01 22:14:00,79.2,74.3,29.89,SW,222,0.0,0.0,85,0.00,FEW,,0.22,WeatherDisplay:10.37,2013-09-02 02:14:00,
2013-09-01 22:17:00,79.2,74.3,29.90,SW,222,0.0,0.0,85,0.00,FEW,,0.22,WeatherDisplay:10.37,2013-09-02 02:17:00,
2013-09-01 22:18:00,79.2,74.6,29.89,SW,222,0.0,0.0,86,0.00,FEW,,0.22,WeatherDisplay:10.37,2013-09-02 02:18:00,
2013-09-01 22:19:00,79.2,74.3,29.89,SW,222,0.0,0.0,85,0.00,FEW,,0.22,WeatherDisplay:10.37,2013-09-02 02:19:00,
2013-09-01 22:20:00,79.2,74.6,29.89,SW,222,0.0,0.0,86,0.00,FEW,,0.22,WeatherDisplay:10.37,2013-09-02 02:20:00,
2013-09-01 22:22:00,79.2,74.6,29.89,SW,222,0.0,0.0,86,0.00,FEW,,0.22,WeatherDisplay:10.37,2013-09-02 02:22:00,
2013-09-01 22:23:00,79.2,74.3,29.90,SW,222,0.0,0.0,85,0.00,FEW,,0.22,WeatherDisplay:10.37,2013-09-02 02:23:00,
2013-09-01 22:24:00,79.2,74.3,29.89,SW,222,0.0,0.0,85,0.00,FEW,,0.22,WeatherDisplay:10.37,2013-09-02 02:24:00,
2013-09-01 22:25:00,79.2,74.3,29.89,SW,222,0.0,0.0,85,0.00,FEW,,0.22,WeatherDisplay:10.37,2013-09-02 02:25:00,
2013-09-01 22:27:00,79.1,74.2,29.89,SW,222,0.0,3.5,85,0.00,FEW,,0.22,WeatherDisplay:10.37,2013-09-02 02:27:00,
2013-09-01 22:28:00,79.0,74.1,29.89,SW,222,0.6,3.5,85,0.00,FEW,,0.22,WeatherDisplay:10.37,2013-09-02 02:28:00,
2013-09-01 22:29:00,79.0,74.1,29.89,SW,222,0.6,3.5,85,0.00,FEW,,0.22,WeatherDisplay:10.37,2013-09-02 02:29:00,
2013-09-01 22:30:00,78.9,74.0,29.89,SW,222,0.0,1.1,85,0.00,FEW,,0.22,WeatherDisplay:10.37,2013-09-02 02:30:00,
2013-09-01 22:32:00,78.8,73.9,29.89,SW,222,0.0,0.0,85,0.00,FEW,,0.22,WeatherDisplay:10.37,2013-09-02 02:32:00,
2013-09-01 22:33:00,78.8,73.9,29.89,SW,222,0.8,3.5,85,0.00,FEW,,0.22,WeatherDisplay:10.37,2013-09-02 02:33:00,
2013-09-01 22:34:00,78.7,73.8,29.90,SW,222,0.0,0.0,85,0.00,FEW,,0.22,WeatherDisplay:10.37,2013-09-02 02:34:00,
2013-09-01 22:35:00,78.7,73.8,29.89,SW,222,0.0,0.0,85,0.00,FEW,,0.22,WeatherDisplay:10.37,2013-09-02 02:35:00,
2013-09-01 22:37:00,78.7,73.8,29.89,SW,222,0.0,0.0,85,0.00,FEW,,0.22,WeatherDisplay:10.37,2013-09-02 02:37:00,
2013-09-01 22:38:00,78.7,73.8,29.89,SW,222,0.0,0.0,85,0.00,FEW,,0.22,WeatherDisplay:10.37,2013-09-02 02:38:00,
2013-09-01 22:39:00,78.7,73.8,29.90,SW,222,0.0,1.1,85,0.00,FEW,,0.22,WeatherDisplay:10.37,2013-09-02 02:39:00,
2013-09-01 22:40:00,78.7,73.8,29.90,SW,222,0.0,0.0,85,0.00,FEW,,0.22,WeatherDisplay:10.37,2013-09-02 02:40:00,
2013-09-01 22:42:00,78.6,73.7,29.90,SW,222,0.0,0.0,85,0.00,FEW,,0.22,WeatherDisplay:10.37,2013-09-02 02:42:00,
2013-09-01 22:43:00,78.6,73.7,29.90,SW,222,0.0,0.0,85,0.00,FEW,,0.22,WeatherDisplay:10.37,2013-09-02 02:43:00,
2013-09-01 22:44:00,78.6,73.7,29.90,SW,222,0.1,0.0,85,0.00,FEW,,0.22,WeatherDisplay:10.37,2013-09-02 02:44:00,
2013-09-01 22:45:00,78.5,74.0,29.90,SW,222,0.1,1.1,86,0.00,FEW,,0.22,WeatherDisplay:10.37,2013-09-02 02:45:00,
2013-09-01 22:46:00,78.5,73.6,29.90,SW,221,0.6,3.5,85,0.00,FEW,,0.22,WeatherDisplay:10.37,2013-09-02 02:46:00,
2013-09-01 22:47:00,78.5,73.6,29.90,SW,218,0.6,1.1,85,0.00,FEW,,0.22,WeatherDisplay:10.37,2013-09-02 02:47:00,
2013-09-01 22:48:00,78.5,73.6,29.90,SW,219,0.0,3.5,85,0.00,FEW,,0.22,WeatherDisplay:10.37,2013-09-02 02:48:00,
2013-09-01 22:49:00,78.4,73.9,29.90,SW,219,0.0,0.0,86,0.00,FEW,,0.22,WeatherDisplay:10.37,2013-09-02 02:49:00,
2013-09-01 22:50:00,78.4,73.9,29.90,SW,218,0.0,0.0,86,0.00,FEW,,0.22,WeatherDisplay:10.37,2013-09-02 02:50:00,
2013-09-01 22:51:00,78.4,73.9,29.90,SW,218,0.0,0.0,86,0.00,FEW,,0.22,WeatherDisplay:10.37,2013-09-02 02:51:00,
2013-09-01 22:53:00,78.5,74.0,29.90,SW,218,0.0,0.0,86,0.00,FEW,,0.22,WeatherDisplay:10.37,2013-09-02 02:53:00,
2013-09-01 22:54:00,78.4,73.9,29.89,SW,218,0.0,0.0,86,0.00,FEW,,0.22,WeatherDisplay:10.37,2013-09-02 02:54:00,
2013-09-01 22:56:00,78.4,73.9,29.89,SW,219,0.0,0.0,86,0.00,FEW,,0.22,WeatherDisplay:10.37,2013-09-02 02:56:00,
2013-09-01 22:57:00,78.4,73.9,29.89,SW,219,0.0,0.0,86,0.00,FEW,,0.22,WeatherDisplay:10.37,2013-09-02 02:57:00,
2013-09-01 22:58:00,78.4,73.9,29.89,SW,218,0.1,0.0,86,0.00,FEW,,0.22,WeatherDisplay:10.37,2013-09-02 02:58:00,
2013-09-01 22:59:00,78.3,73.8,29.89,SW,216,0.2,3.0,86,0.00,FEW,,0.22,WeatherDisplay:10.37,2013-09-02 02:59:00,
2013-09-01 23:01:00,78.3,73.8,29.89,SW,217,0.1,3.5,86,0.00,BKN,,0.22,WeatherDisplay:10.37,2013-09-02 03:01:00,
2013-09-01 23:02:00,78.3,73.4,29.89,SW,217,0.0,1.1,85,0.00,BKN,,0.22,WeatherDisplay:10.37,2013-09-02 03:02:00,
2013-09-01 23:03:00,78.3,73.8,29.89,SW,217,0.0,0.0,86,0.00,BKN,,0.22,WeatherDisplay:10.37,2013-09-02 03:03:00,
2013-09-01 23:04:00,78.3,73.8,29.90,SW,217,0.0,0.0,86,0.00,BKN,,0.22,WeatherDisplay:10.37,2013-09-02 03:04:00,
2013-09-01 23:06:00,78.2,73.7,29.90,SW,215,0.7,0.0,86,0.00,BKN,,0.22,WeatherDisplay:10.37,2013-09-02 03:06:00,
2013-09-01 23:07:00,78.2,73.7,29.90,SW,215,0.7,2.3,86,0.00,BKN,,0.22,WeatherDisplay:10.37,2013-09-02 03:07:00,
2013-09-01 23:08:00,78.2,73.7,29.90,SW,215,0.0,0.0,86,0.00,BKN,,0.22,WeatherDisplay:10.37,2013-09-02 03:08:00,
2013-09-01 23:09:00,78.2,73.7,29.89,SW,216,0.0,3.0,86,0.00,BKN,,0.22,WeatherDisplay:10.37,2013-09-02 03:09:00,
2013-09-01 23:12:00,78.2,73.7,29.89,SW,214,0.3,2.3,86,0.00,BKN,,0.22,WeatherDisplay:10.37,2013-09-02 03:12:00,
2013-09-01 23:13:00,78.2,73.7,29.89,SW,220,0.5,2.3,86,0.00,BKN,,0.22,WeatherDisplay:10.37,2013-09-02 03:13:00,
2013-09-01 23:14:00,78.1,73.6,29.89,WSW,248,0.0,0.0,86,0.00,BKN,,0.22,WeatherDisplay:10.37,2013-09-02 03:14:00,
2013-09-01 23:15:00,78.1,73.6,29.89,WSW,248,0.0,0.0,86,0.00,BKN,,0.22,WeatherDisplay:10.37,2013-09-02 03:15:00,
2013-09-01 23:17:00,78.0,73.5,29.89,WSW,248,0.0,0.0,86,0.00,BKN,,0.22,WeatherDisplay:10.37,2013-09-02 03:17:00,
2013-09-01 23:18:00,77.9,73.4,29.89,WSW,248,0.0,0.0,86,0.00,BKN,,0.22,WeatherDisplay:10.37,2013-09-02 03:18:00,
2013-09-01 23:20:00,77.9,73.7,29.89,WSW,248,0.0,0.0,87,0.00,BKN,,0.22,WeatherDisplay:10.37,2013-09-02 03:20:00,
2013-09-01 23:21:00,77.9,73.7,29.89,WSW,248,0.1,1.1,87,0.00,BKN,,0.22,WeatherDisplay:10.37,2013-09-02 03:21:00,
2013-09-01 23:22:00,77.9,73.7,29.89,WSW,248,0.0,0.0,87,0.00,BKN,,0.22,WeatherDisplay:10.37,2013-09-02 03:22:00,
2013-09-01 23:23:00,77.9,73.7,29.89,WSW,248,0.0,0.0,87,0.00,BKN,,0.22,WeatherDisplay:10.37,2013-09-02 03:23:00,
2013-09-01 23:25:00,77.9,73.7,29.89,WSW,248,0.0,0.0,87,0.00,BKN,,0.22,WeatherDisplay:10.37,2013-09-02 03:25:00,
2013-09-01 23:26:00,77.9,73.7,29.89,WSW,248,0.0,0.0,87,0.00,BKN,,0.22,WeatherDisplay:10.37,2013-09-02 03:26:00,
2013-09-01 23:27:00,77.9,73.7,29.90,WSW,248,0.0,0.0,87,0.00,BKN,,0.22,WeatherDisplay:10.37,2013-09-02 03:27:00,
2013-09-01 23:28:00,77.9,73.7,29.90,WSW,248,0.0,0.0,87,0.00,BKN,,0.22,WeatherDisplay:10.37,2013-09-02 03:28:00,
2013-09-01 23:30:00,77.9,73.7,29.89,WSW,248,0.0,0.0,87,0.00,BKN,,0.22,WeatherDisplay:10.37,2013-09-02 03:30:00,
2013-09-01 23:31:00,77.8,73.6,29.90,WSW,248,0.0,0.0,87,0.00,BKN,,0.22,WeatherDisplay:10.37,2013-09-02 03:31:00,
2013-09-01 23:32:00,77.8,73.6,29.89,WSW,248,0.0,0.0,87,0.00,BKN,,0.22,WeatherDisplay:10.37,2013-09-02 03:32:00,
2013-09-01 23:33:00,77.8,73.6,29.90,WSW,248,0.0,0.0,87,0.00,BKN,,0.22,WeatherDisplay:10.37,2013-09-02 03:33:00,
2013-09-01 23:35:00,77.8,73.6,29.89,WSW,248,0.0,0.0,87,0.00,BKN,,0.22,WeatherDisplay:10.37,2013-09-02 03:35:00,
2013-09-01 23:36:00,77.8,73.6,29.90,WSW,248,0.0,0.0,87,0.00,BKN,,0.22,WeatherDisplay:10.37,2013-09-02 03:36:00,
2013-09-01 23:37:00,77.8,73.6,29.90,WSW,248,0.0,0.0,87,0.00,BKN,,0.22,WeatherDisplay:10.37,2013-09-02 03:37:00,
2013-09-01 23:38:00,77.8,73.6,29.90,WSW,248,0.0,0.0,87,0.00,BKN,,0.22,WeatherDisplay:10.37,2013-09-02 03:38:00,
2013-09-01 23:39:00,77.8,73.3,29.89,WSW,248,0.0,0.0,86,0.00,BKN,,0.22,WeatherDisplay:10.37,2013-09-02 03:39:00,
2013-09-01 23:40:00,77.7,73.5,29.89,WSW,248,0.0,0.0,87,0.00,BKN,,0.22,WeatherDisplay:10.37,2013-09-02 03:40:00,
2013-09-01 23:42:00,77.7,73.5,29.89,WSW,248,0.0,0.0,87,0.00,BKN,,0.22,WeatherDisplay:10.37,2013-09-02 03:42:00,
2013-09-01 23:43:00,77.7,73.5,29.89,WSW,248,0.0,0.0,87,0.00,BKN,,0.22,WeatherDisplay:10.37,2013-09-02 03:43:00,
2013-09-01 23:44:00,77.7,73.5,29.89,WSW,248,0.0,0.0,87,0.00,BKN,,0.22,WeatherDisplay:10.37,2013-09-02 03:44:00,
2013-09-01 23:45:00,77.7,73.5,29.89,WSW,248,0.0,0.0,87,0.00,BKN,,0.22,WeatherDisplay:10.37,2013-09-02 03:45:00,
2013-09-01 23:47:00,77.7,73.5,29.89,WSW,244,0.6,3.5,87,0.00,BKN,,0.22,WeatherDisplay:10.37,2013-09-02 03:47:00,
2013-09-01 23:48:00,77.6,73.4,29.89,WSW,244,0.0,0.0,87,0.00,BKN,,0.22,WeatherDisplay:10.37,2013-09-02 03:48:00,
2013-09-01 23:50:00,77.5,73.3,29.89,WSW,244,0.0,0.0,87,0.00,BKN,,0.22,WeatherDisplay:10.37,2013-09-02 03:50:00,
2013-09-01 23:53:00,77.4,73.2,29.89,WSW,244,0.0,0.0,87,0.00,BKN,,0.22,WeatherDisplay:10.37,2013-09-02 03:53:00,
2013-09-01 23:54:00,77.4,73.2,29.89,WSW,244,0.0,0.0,87,0.00,BKN,,0.22,WeatherDisplay:10.37,2013-09-02 03:54:00,
2013-09-01 23:55:00,77.3,73.1,29.89,WSW,244,0.0,0.0,87,0.00,BKN,,0.22,WeatherDisplay:10.37,2013-09-02 03:55:00,
2013-09-01 23:56:00,77.3,73.1,29.89,WSW,244,0.0,0.0,87,0.00,BKN,,0.22,WeatherDisplay:10.37,2013-09-02 03:56:00,
2013-09-01 23:58:00,77.3,73.5,29.89,WSW,244,0.0,0.0,88,0.00,BKN,,0.22,WeatherDisplay:10.37,2013-09-02 03:58:00,
2013-09-01 23:59:00,77.3,73.1,29.89,WSW,244,0.0,0.0,87,0.00,BKN,,0.22,WeatherDisplay:10.37,2013-09-02 03:59:00,